Observation data for Segovia 7SSW on 12/03/2019      Previous  Date       Current Mesonet Observations  Soil Data  Daily Summary Page  Observations in Plain Language
KSE2 030600Z 19007KT 09/M04 A3013 RMK A01 T00881039  RH  040%=      5-min Rain = 0
KSE2 030601Z 19007KT 09/M04 A3013 RMK A01 T00881039  RH  040%=      5-min Rain = 0
KSE2 030602Z 19007KT 09/M04 A3013 RMK A01 T00881039  RH  041%=      5-min Rain = 0
KSE2 030603Z 19007KT 09/M04 A3013 RMK A01 T00871039  RH  041%=      5-min Rain = 0
KSE2 030604Z 19008KT 09/M04 A3013 RMK A01 T00871039  RH  041%=      5-min Rain = 0
KSE2 030605Z 19007KT 09/M04 A3013 RMK A01 T00871039  RH  041%=      5-min Rain = 0
KSE2 030606Z 19007KT 09/M04 A3013 RMK A01 T00871039  RH  041%=      5-min Rain = 0
KSE2 030607Z 19007KT 09/M04 A3013 RMK A01 T00871039  RH  041%=      5-min Rain = 0
KSE2 030608Z 19007KT 09/M04 A3013 RMK A01 T00871039  RH  041%=      5-min Rain = 0
KSE2 030609Z 19007KT 09/M04 A3013 RMK A01 T00861039  RH  041%=      5-min Rain = 0
KSE2 030610Z 19006KT 09/M04 A3013 RMK A01 T00861039  RH  041%=      5-min Rain = 0
KSE2 030611Z 19007KT 09/M04 A3013 RMK A01 T00861039  RH  041%=      5-min Rain = 0
KSE2 030612Z 19006KT 09/M04 A3013 RMK A01 T00861039  RH  041%=      5-min Rain = 0
KSE2 030613Z 20006KT 09/M04 A3013 RMK A01 T00861039  RH  041%=      5-min Rain = 0
KSE2 030614Z 19006KT 09/M04 A3013 RMK A01 T00861039  RH  041%=      5-min Rain = 0
KSE2 030615Z 19008KT 09/M04 A3013 RMK A01 T00861039  RH  041%=      5-min Rain = 0
KSE2 030616Z 19007KT 09/M04 A3013 RMK A01 T00861039  RH  041%=      5-min Rain = 0
KSE2 030617Z 19007KT 09/M04 A3013 RMK A01 T00861039  RH  041%=      5-min Rain = 0
KSE2 030618Z 19007KT 09/M04 A3013 RMK A01 T00861039  RH  041%=      5-min Rain = 0
KSE2 030619Z 19008KT 09/M04 A3012 RMK A01 T00861039  RH  041%=      5-min Rain = 0
KSE2 030620Z 18007KT 09/M04 A3012 RMK A01 T00861039  RH  041%=      5-min Rain = 0
KSE2 030621Z 19008KT 09/M04 A3012 RMK A01 T00861039  RH  041%=      5-min Rain = 0
KSE2 030622Z 18008KT 09/M04 A3012 RMK A01 T00871039  RH  041%=      5-min Rain = 0
KSE2 030623Z 18007KT 09/M04 A3012 RMK A01 T00871039  RH  041%=      5-min Rain = 0
KSE2 030624Z 18007KT 09/M04 A3012 RMK A01 T00871039  RH  041%=      5-min Rain = 0
KSE2 030625Z 19007KT 09/M04 A3012 RMK A01 T00871039  RH  041%=      5-min Rain = 0
KSE2 030626Z 19006KT 09/M04 A3012 RMK A01 T00861039  RH  041%=      5-min Rain = 0
KSE2 030627Z 19007KT 09/M04 A3012 RMK A01 T00861039  RH  041%=      5-min Rain = 0
KSE2 030628Z 19008KT 09/M04 A3012 RMK A01 T00861039  RH  041%=      5-min Rain = 0
KSE2 030629Z 19006KT 09/M04 A3012 RMK A01 T00861039  RH  041%=      5-min Rain = 0
KSE2 030630Z 19006KT 09/M04 A3012 RMK A01 T00861039  RH  041%=      5-min Rain = 0
KSE2 030631Z 19009KT 09/M04 A3012 RMK A01 T00861039  RH  041%=      5-min Rain = 0
KSE2 030632Z 18007KT 09/M04 A3012 RMK A01 T00871038  RH  041%=      5-min Rain = 0
KSE2 030633Z 19008KT 09/M04 A3012 RMK A01 T00881038  RH  041%=      5-min Rain = 0
KSE2 030634Z 19007KT 09/M04 A3012 RMK A01 T00881038  RH  041%=      5-min Rain = 0
KSE2 030635Z 18007KT 09/M04 A3012 RMK A01 T00881038  RH  041%=      5-min Rain = 0
KSE2 030636Z 19008KT 09/M04 A3011 RMK A01 T00881039  RH  041%=      5-min Rain = 0
KSE2 030637Z 19008KT 09/M04 A3011 RMK A01 T00891039  RH  040%=      5-min Rain = 0
KSE2 030638Z 19008KT 09/M04 A3011 RMK A01 T00891039  RH  040%=      5-min Rain = 0
KSE2 030639Z 19008KT 09/M04 A3011 RMK A01 T00901038  RH  040%=      5-min Rain = 0
KSE2 030640Z 19008KT 09/M04 A3011 RMK A01 T00901039  RH  040%=      5-min Rain = 0
KSE2 030641Z 19008KT 09/M04 A3011 RMK A01 T00901039  RH  040%=      5-min Rain = 0
KSE2 030642Z 19009KT 09/M04 A3011 RMK A01 T00911039  RH  040%=      5-min Rain = 0
KSE2 030643Z 19008KT 09/M04 A3011 RMK A01 T00911039  RH  040%=      5-min Rain = 0
KSE2 030644Z 19008KT 09/M04 A3011 RMK A01 T00921039  RH  039%=      5-min Rain = 0
KSE2 030645Z 19007KT 09/M04 A3011 RMK A01 T00921039  RH  039%=      5-min Rain = 0
KSE2 030646Z 20008KT 09/M04 A3011 RMK A01 T00921040  RH  039%=      5-min Rain = 0
KSE2 030647Z 19007KT 09/M04 A3011 RMK A01 T00931039  RH  039%=      5-min Rain = 0
KSE2 030648Z 19008KT 09/M04 A3011 RMK A01 T00931039  RH  039%=      5-min Rain = 0
KSE2 030649Z 19008KT 09/M04 A3011 RMK A01 T00931040  RH  039%=      5-min Rain = 0
KSE2 030650Z 19007KT 09/M04 A3011 RMK A01 T00931040  RH  039%=      5-min Rain = 0
KSE2 030651Z 19007KT 09/M04 A3011 RMK A01 T00931040  RH  039%=      5-min Rain = 0
KSE2 030652Z 19009KT 09/M04 A3011 RMK A01 T00931040  RH  039%=      5-min Rain = 0
KSE2 030653Z 19008KT 09/M04 A301 RMK A01 T00941039  RH  039%=      5-min Rain = 0
KSE2 030654Z 19009KT 09/M04 A301 RMK A01 T00941040  RH  039%=      5-min Rain = 0
KSE2 030655Z 19008KT 09/M04 A301 RMK A01 T00941039  RH  039%=      5-min Rain = 0
KSE2 030656Z 19008KT 09/M04 A301 RMK A01 T00941039  RH  039%=      5-min Rain = 0
KSE2 030657Z 19008G13KT 09/M04 A301 RMK A01 T00941039  RH  039%=      5-min Rain = 0
KSE2 030658Z 19008KT 09/M04 A301 RMK A01 T00931039  RH  039%=      5-min Rain = 0
KSE2 030659Z 19007KT 09/M04 A301 RMK A01 T00931039  RH  039%=      5-min Rain = 0
KSE2 030700Z 19008KT 09/M04 A301 RMK A01 T00931039  RH  039%=      5-min Rain = 0
KSE2 030701Z 19009KT 09/M04 A301 RMK A01 T00931039  RH  039%=      5-min Rain = 0
KSE2 030702Z 19009KT 09/M04 A301 RMK A01 T00931039  RH  039%=      5-min Rain = 0
KSE2 030703Z 19008KT 09/M04 A301 RMK A01 T00941039  RH  039%=      5-min Rain = 0
KSE2 030704Z 19008KT 09/M04 A301 RMK A01 T00941039  RH  039%=      5-min Rain = 0
KSE2 030705Z 19008KT 09/M04 A301 RMK A01 T00941039  RH  039%=      5-min Rain = 0
KSE2 030706Z 18009KT 09/M04 A301 RMK A01 T00941039  RH  039%=      5-min Rain = 0
KSE2 030707Z 19008KT 09/M04 A3009 RMK A01 T00941039  RH  039%=      5-min Rain = 0
KSE2 030708Z 18008KT 09/M04 A3009 RMK A01 T00941039  RH  039%=      5-min Rain = 0
KSE2 030709Z 18009KT 09/M04 A3009 RMK A01 T00941039  RH  039%=      5-min Rain = 0
KSE2 030710Z 19007KT 09/M04 A3009 RMK A01 T00941040  RH  039%=      5-min Rain = 0
KSE2 030711Z 18006KT 09/M04 A3009 RMK A01 T00941039  RH  039%=      5-min Rain = 0
KSE2 030712Z 19006KT 09/M04 A3009 RMK A01 T00931039  RH  039%=      5-min Rain = 0
KSE2 030713Z 19007KT 09/M04 A3009 RMK A01 T00931039  RH  039%=      5-min Rain = 0
KSE2 030714Z 18009KT 09/M04 A3009 RMK A01 T00931039  RH  039%=      5-min Rain = 0
KSE2 030715Z 19009KT 09/M04 A3009 RMK A01 T00941039  RH  039%=      5-min Rain = 0
KSE2 030716Z 19009KT 09/M04 A3009 RMK A01 T00941040  RH  039%=      5-min Rain = 0
KSE2 030717Z 18009KT 10/M04 A3009 RMK A01 T00951039  RH  039%=      5-min Rain = 0
KSE2 030718Z 19009KT 10/M04 A3009 RMK A01 T00951039  RH  039%=      5-min Rain = 0
KSE2 030719Z 18009KT 10/M04 A3009 RMK A01 T00951039  RH  039%=      5-min Rain = 0
KSE2 030720Z 19009KT 10/M04 A3009 RMK A01 T00951040  RH  038%=      5-min Rain = 0
KSE2 030721Z 19007KT 10/M04 A3009 RMK A01 T00951039  RH  038%=      5-min Rain = 0
KSE2 030722Z 18010KT 10/M04 A3009 RMK A01 T00951040  RH  038%=      5-min Rain = 0
KSE2 030723Z 18008G13KT 10/M04 A3008 RMK A01 T00951040  RH  038%=      5-min Rain = 0
KSE2 030724Z 18010KT 10/M04 A3008 RMK A01 T00951039  RH  038%=      5-min Rain = 0
KSE2 030725Z 18008KT 10/M04 A3008 RMK A01 T00951040  RH  038%=      5-min Rain = 0
KSE2 030726Z 18009KT 10/M04 A3008 RMK A01 T00951039  RH  038%=      5-min Rain = 0
KSE2 030727Z 18011KT 10/M04 A3008 RMK A01 T00951039  RH  038%=      5-min Rain = 0
KSE2 030728Z 18010KT 10/M04 A3008 RMK A01 T00951039  RH  038%=      5-min Rain = 0
KSE2 030729Z 18009KT 10/M04 A3008 RMK A01 T00951040  RH  038%=      5-min Rain = 0
KSE2 030730Z 18009KT 10/M04 A3008 RMK A01 T00951040  RH  038%=      5-min Rain = 0
KSE2 030731Z 18010KT 09/M04 A3008 RMK A01 T00941040  RH  039%=      5-min Rain = 0
KSE2 030732Z 19010KT 09/M04 A3008 RMK A01 T00941040  RH  039%=      5-min Rain = 0
KSE2 030733Z 18010KT 09/M04 A3008 RMK A01 T00941040  RH  039%=      5-min Rain = 0
KSE2 030734Z 18009KT 10/M04 A3008 RMK A01 T00951040  RH  038%=      5-min Rain = 0
KSE2 030735Z 18010KT 10/M04 A3008 RMK A01 T00951040  RH  038%=      5-min Rain = 0
KSE2 030736Z 18009KT 10/M04 A3008 RMK A01 T00951040  RH  038%=      5-min Rain = 0
KSE2 030737Z 18007KT 09/M04 A3008 RMK A01 T00941040  RH  039%=      5-min Rain = 0
KSE2 030738Z 18008KT 09/M04 A3008 RMK A01 T00941040  RH  039%=      5-min Rain = 0
KSE2 030739Z 18008KT 09/M04 A3008 RMK A01 T00931040  RH  039%=      5-min Rain = 0
KSE2 030740Z 19008G14KT 09/M04 A3008 RMK A01 T00921040  RH  039%=      5-min Rain = 0
KSE2 030741Z 18008KT 09/M04 A3008 RMK A01 T00921040  RH  039%=      5-min Rain = 0
KSE2 030742Z 19007KT 09/M04 A3008 RMK A01 T00911040  RH  039%=      5-min Rain = 0
KSE2 030743Z 19006KT 09/M04 A3008 RMK A01 T00901040  RH  040%=      5-min Rain = 0
KSE2 030744Z 19007KT 09/M04 A3008 RMK A01 T00901040  RH  040%=      5-min Rain = 0
KSE2 030745Z 20007KT 09/M04 A3009 RMK A01 T00891040  RH  040%=      5-min Rain = 0
KSE2 030746Z 19008KT 09/M04 A3009 RMK A01 T00891040  RH  040%=      5-min Rain = 0
KSE2 030747Z 19007KT 09/M04 A3009 RMK A01 T00891040  RH  040%=      5-min Rain = 0
KSE2 030748Z 19008KT 09/M04 A3009 RMK A01 T00891040  RH  040%=      5-min Rain = 0
KSE2 030749Z 19008KT 09/M04 A3009 RMK A01 T00891040  RH  040%=      5-min Rain = 0
KSE2 030750Z 19007KT 09/M04 A3009 RMK A01 T00891040  RH  040%=      5-min Rain = 0
KSE2 030751Z 20007KT 09/M04 A3009 RMK A01 T00891040  RH  040%=      5-min Rain = 0
KSE2 030752Z 19008KT 09/M04 A3009 RMK A01 T00891040  RH  040%=      5-min Rain = 0
KSE2 030753Z 19006KT 09/M04 A3009 RMK A01 T00891040  RH  040%=      5-min Rain = 0
KSE2 030754Z 19008KT 09/M04 A3009 RMK A01 T00881040  RH  040%=      5-min Rain = 0
KSE2 030755Z 20008KT 09/M04 A3009 RMK A01 T00881040  RH  040%=      5-min Rain = 0
KSE2 030756Z 20005KT 09/M04 A3009 RMK A01 T00891039  RH  040%=      5-min Rain = 0
KSE2 030757Z 20007KT 09/M04 A3009 RMK A01 T00881040  RH  040%=      5-min Rain = 0
KSE2 030758Z 20006KT 09/M04 A3009 RMK A01 T00871040  RH  040%=      5-min Rain = 0
KSE2 030759Z 20006KT 09/M04 A3009 RMK A01 T00871040  RH  040%=      5-min Rain = 0
KSE2 030800Z 20007KT 09/M04 A3009 RMK A01 T00871040  RH  040%=      5-min Rain = 0
KSE2 030801Z 20007KT 09/M04 A3009 RMK A01 T00881040  RH  040%=      5-min Rain = 0
KSE2 030802Z 20008KT 09/M04 A3009 RMK A01 T00871040  RH  040%=      5-min Rain = 0
KSE2 030803Z 20008KT 09/M04 A3009 RMK A01 T00871040  RH  040%=      5-min Rain = 0
KSE2 030804Z 19007KT 09/M04 A3009 RMK A01 T00871040  RH  040%=      5-min Rain = 0
KSE2 030805Z 19007KT 09/M04 A3009 RMK A01 T00881040  RH  040%=      5-min Rain = 0
KSE2 030806Z 20007KT 09/M04 A3009 RMK A01 T00881040  RH  040%=      5-min Rain = 0
KSE2 030807Z 20007KT 09/M04 A3009 RMK A01 T00871040  RH  040%=      5-min Rain = 0
KSE2 030808Z 20007KT 09/M04 A3009 RMK A01 T00881040  RH  040%=      5-min Rain = 0
KSE2 030809Z 20007KT 09/M04 A301 RMK A01 T00881040  RH  040%=      5-min Rain = 0
KSE2 030810Z 20006KT 09/M04 A301 RMK A01 T00881040  RH  040%=      5-min Rain = 0
KSE2 030811Z 20007KT 09/M04 A301 RMK A01 T00881040  RH  040%=      5-min Rain = 0
KSE2 030812Z 21006KT 09/M04 A301 RMK A01 T00891040  RH  040%=      5-min Rain = 0
KSE2 030813Z 21008KT 09/M04 A301 RMK A01 T00891040  RH  040%=      5-min Rain = 0
KSE2 030814Z 21006KT 09/M04 A301 RMK A01 T00891040  RH  040%=      5-min Rain = 0
KSE2 030815Z 21006KT 09/M04 A301 RMK A01 T00891040  RH  040%=      5-min Rain = 0
KSE2 030816Z 21005KT 09/M04 A301 RMK A01 T00891040  RH  040%=      5-min Rain = 0
KSE2 030817Z 21006KT 09/M04 A301 RMK A01 T00891040  RH  040%=      5-min Rain = 0
KSE2 030818Z 21005KT 09/M04 A301 RMK A01 T00891040  RH  040%=      5-min Rain = 0
KSE2 030819Z 21007KT 09/M04 A301 RMK A01 T00881040  RH  040%=      5-min Rain = 0
KSE2 030820Z 21006KT 09/M04 A301 RMK A01 T00881040  RH  040%=      5-min Rain = 0
KSE2 030821Z 20006KT 09/M04 A3009 RMK A01 T00891040  RH  040%=      5-min Rain = 0
KSE2 030822Z 20006KT 09/M04 A3009 RMK A01 T00891040  RH  040%=      5-min Rain = 0
KSE2 030823Z 20007KT 09/M04 A3009 RMK A01 T00891040  RH  040%=      5-min Rain = 0
KSE2 030824Z 20006KT 09/M04 A3009 RMK A01 T00891040  RH  040%=      5-min Rain = 0
KSE2 030825Z 19006KT 09/M04 A3009 RMK A01 T00901040  RH  040%=      5-min Rain = 0
KSE2 030826Z 19006KT 09/M04 A3009 RMK A01 T00891040  RH  040%=      5-min Rain = 0
KSE2 030827Z 19006KT 09/M04 A3009 RMK A01 T00881040  RH  040%=      5-min Rain = 0
KSE2 030828Z 18006KT 09/M04 A3009 RMK A01 T00881040  RH  040%=      5-min Rain = 0
KSE2 030829Z 18007KT 09/M04 A3009 RMK A01 T00871040  RH  041%=      5-min Rain = 0
KSE2 030830Z 18006KT 09/M04 A3009 RMK A01 T00861040  RH  041%=      5-min Rain = 0
KSE2 030831Z 19008KT 09/M04 A3009 RMK A01 T00871039  RH  041%=      5-min Rain = 0
KSE2 030832Z 19007KT 09/M04 A3009 RMK A01 T00861040  RH  041%=      5-min Rain = 0
KSE2 030833Z 19007KT 09/M04 A3009 RMK A01 T00861040  RH  041%=      5-min Rain = 0
KSE2 030834Z 19008KT 09/M04 A3009 RMK A01 T00861039  RH  041%=      5-min Rain = 0
KSE2 030835Z 19007KT 09/M04 A3009 RMK A01 T00861040  RH  041%=      5-min Rain = 0
KSE2 030836Z 19006KT 09/M04 A3009 RMK A01 T00861040  RH  041%=      5-min Rain = 0
KSE2 030837Z 19006KT 09/M04 A3009 RMK A01 T00851040  RH  041%=      5-min Rain = 0
KSE2 030838Z 19006KT 08/M04 A3009 RMK A01 T00841039  RH  041%=      5-min Rain = 0
KSE2 030839Z 19006KT 08/M04 A3009 RMK A01 T00841039  RH  042%=      5-min Rain = 0
KSE2 030840Z 19006KT 08/M04 A3009 RMK A01 T00831040  RH  042%=      5-min Rain = 0
KSE2 030841Z 19006KT 08/M04 A3009 RMK A01 T00821039  RH  042%=      5-min Rain = 0
KSE2 030842Z 19006KT 08/M04 A3009 RMK A01 T00811040  RH  042%=      5-min Rain = 0
KSE2 030843Z 18007KT 08/M04 A3009 RMK A01 T00801039  RH  043%=      5-min Rain = 0
KSE2 030844Z 19007KT 08/M04 A3009 RMK A01 T00801039  RH  043%=      5-min Rain = 0
KSE2 030845Z 18007KT 08/M04 A3009 RMK A01 T00811039  RH  043%=      5-min Rain = 0
KSE2 030846Z 19006KT 08/M04 A3009 RMK A01 T00811039  RH  042%=      5-min Rain = 0
KSE2 030847Z 19008KT 08/M04 A3009 RMK A01 T00821039  RH  042%=      5-min Rain = 0
KSE2 030848Z 18007KT 08/M04 A3008 RMK A01 T00831039  RH  042%=      5-min Rain = 0
KSE2 030849Z 19007KT 08/M04 A3008 RMK A01 T00831039  RH  042%=      5-min Rain = 0
KSE2 030850Z 18007KT 08/M04 A3008 RMK A01 T00821039  RH  042%=      5-min Rain = 0
KSE2 030851Z 18007KT 08/M04 A3008 RMK A01 T00821039  RH  042%=      5-min Rain = 0
KSE2 030852Z 19007KT 08/M04 A3008 RMK A01 T00821039  RH  042%=      5-min Rain = 0
KSE2 030853Z 18007KT 08/M04 A3008 RMK A01 T00821039  RH  042%=      5-min Rain = 0
KSE2 030854Z 18007KT 08/M04 A3008 RMK A01 T00821039  RH  042%=      5-min Rain = 0
KSE2 030855Z 18008KT 08/M04 A3008 RMK A01 T00821039  RH  042%=      5-min Rain = 0
KSE2 030856Z 18007KT 08/M04 A3008 RMK A01 T00811039  RH  042%=      5-min Rain = 0
KSE2 030857Z 19008KT 08/M04 A3008 RMK A01 T00811039  RH  042%=      5-min Rain = 0
KSE2 030858Z 18007G12KT 08/M04 A3008 RMK A01 T00811039  RH  042%=      5-min Rain = 0
KSE2 030859Z 19008KT 08/M04 A3008 RMK A01 T00811039  RH  042%=      5-min Rain = 0
KSE2 030900Z 19007KT 08/M04 A3008 RMK A01 T00811039  RH  043%=      5-min Rain = 0
KSE2 030901Z 19008KT 08/M04 A3007 RMK A01 T00811039  RH  043%=      5-min Rain = 0
KSE2 030902Z 18008KT 08/M04 A3007 RMK A01 T00811039  RH  042%=      5-min Rain = 0
KSE2 030903Z 18007KT 08/M04 A3007 RMK A01 T00821039  RH  042%=      5-min Rain = 0
KSE2 030904Z 19009KT 08/M04 A3007 RMK A01 T00811039  RH  042%=      5-min Rain = 0
KSE2 030905Z 18008KT 08/M04 A3007 RMK A01 T00811039  RH  042%=      5-min Rain = 0
KSE2 030906Z 19007KT 08/M04 A3007 RMK A01 T00811039  RH  042%=      5-min Rain = 0
KSE2 030907Z 19007G14KT 08/M04 A3007 RMK A01 T00811039  RH  042%=      5-min Rain = 0
KSE2 030908Z 19008KT 08/M04 A3007 RMK A01 T00821039  RH  042%=      5-min Rain = 0
KSE2 030909Z 19007KT 08/M04 A3007 RMK A01 T00821039  RH  042%=      5-min Rain = 0
KSE2 030910Z 19007KT 08/M04 A3007 RMK A01 T00821039  RH  042%=      5-min Rain = 0
KSE2 030911Z 18007KT 08/M04 A3007 RMK A01 T00821039  RH  042%=      5-min Rain = 0
KSE2 030912Z 19007KT 08/M04 A3007 RMK A01 T00821039  RH  042%=      5-min Rain = 0
KSE2 030913Z 19006KT 08/M04 A3007 RMK A01 T00821039  RH  042%=      5-min Rain = 0
KSE2 030914Z 19006KT 08/M04 A3007 RMK A01 T00811039  RH  042%=      5-min Rain = 0
KSE2 030915Z 18007KT 08/M04 A3007 RMK A01 T00811039  RH  043%=      5-min Rain = 0
KSE2 030916Z 19007KT 08/M04 A3007 RMK A01 T00801039  RH  043%=      5-min Rain = 0
KSE2 030917Z 19008KT 08/M04 A3007 RMK A01 T00801039  RH  043%=      5-min Rain = 0
KSE2 030918Z 19008KT 08/M04 A3007 RMK A01 T00811039  RH  043%=      5-min Rain = 0
KSE2 030919Z 19008KT 08/M04 A3007 RMK A01 T00801039  RH  042%=      5-min Rain = 0
KSE2 030920Z 19008KT 08/M04 A3007 RMK A01 T00811039  RH  042%=      5-min Rain = 0
KSE2 030921Z 19007KT 08/M04 A3007 RMK A01 T00811039  RH  043%=      5-min Rain = 0
KSE2 030922Z 19008KT 08/M04 A3007 RMK A01 T00801039  RH  043%=      5-min Rain = 0
KSE2 030923Z 19007KT 08/M04 A3007 RMK A01 T00791039  RH  043%=      5-min Rain = 0
KSE2 030924Z 19006KT 08/M04 A3007 RMK A01 T00791039  RH  043%=      5-min Rain = 0
KSE2 030925Z 18007KT 08/M04 A3007 RMK A01 T00781039  RH  043%=      5-min Rain = 0
KSE2 030926Z 19008KT 08/M04 A3007 RMK A01 T00781039  RH  043%=      5-min Rain = 0
KSE2 030927Z 18007KT 08/M04 A3007 RMK A01 T00781039  RH  043%=      5-min Rain = 0
KSE2 030928Z 18007KT 08/M04 A3007 RMK A01 T00781039  RH  043%=      5-min Rain = 0
KSE2 030929Z 19007KT 08/M04 A3007 RMK A01 T00771039  RH  043%=      5-min Rain = 0
KSE2 030930Z 18006KT 08/M04 A3007 RMK A01 T00771039  RH  044%=      5-min Rain = 0
KSE2 030931Z 18007KT 08/M04 A3006 RMK A01 T00761039  RH  044%=      5-min Rain = 0
KSE2 030932Z 18006KT 08/M04 A3006 RMK A01 T00751039  RH  044%=      5-min Rain = 0
KSE2 030933Z 18006KT 07/M04 A3006 RMK A01 T00741039  RH  044%=      5-min Rain = 0
KSE2 030934Z 18006KT 07/M04 A3006 RMK A01 T00741039  RH  045%=      5-min Rain = 0
KSE2 030935Z 18006KT 07/M04 A3006 RMK A01 T00731039  RH  045%=      5-min Rain = 0
KSE2 030936Z 19006KT 07/M04 A3006 RMK A01 T00731039  RH  045%=      5-min Rain = 0
KSE2 030937Z 19006KT 07/M04 A3006 RMK A01 T00721039  RH  045%=      5-min Rain = 0
KSE2 030938Z 19006KT 07/M04 A3006 RMK A01 T00721039  RH  045%=      5-min Rain = 0
KSE2 030939Z 18007KT 07/M04 A3006 RMK A01 T00721039  RH  045%=      5-min Rain = 0
KSE2 030940Z 19006KT 07/M04 A3006 RMK A01 T00711039  RH  045%=      5-min Rain = 0
KSE2 030941Z 18006KT 07/M04 A3006 RMK A01 T00701039  RH  046%=      5-min Rain = 0
KSE2 030942Z 18007KT 07/M04 A3006 RMK A01 T00701039  RH  046%=      5-min Rain = 0
KSE2 030943Z 19006KT 07/M04 A3006 RMK A01 T00691039  RH  046%=      5-min Rain = 0
KSE2 030944Z 18007KT 07/M04 A3006 RMK A01 T00681039  RH  046%=      5-min Rain = 0
KSE2 030945Z 18007KT 07/M04 A3006 RMK A01 T00681039  RH  046%=      5-min Rain = 0
KSE2 030946Z 19007KT 07/M04 A3006 RMK A01 T00681039  RH  046%=      5-min Rain = 0
KSE2 030947Z 18007KT 07/M04 A3006 RMK A01 T00681039  RH  046%=      5-min Rain = 0
KSE2 030948Z 19007KT 07/M04 A3006 RMK A01 T00681039  RH  046%=      5-min Rain = 0
KSE2 030949Z 19007KT 07/M04 A3006 RMK A01 T00681039  RH  046%=      5-min Rain = 0
KSE2 030950Z 18007KT 07/M04 A3006 RMK A01 T00681039  RH  046%=      5-min Rain = 0
KSE2 030951Z 18007KT 07/M04 A3006 RMK A01 T00681039  RH  047%=      5-min Rain = 0
KSE2 030952Z 19007KT 07/M04 A3006 RMK A01 T00681039  RH  047%=      5-min Rain = 0
KSE2 030953Z 19007KT 07/M04 A3005 RMK A01 T00671039  RH  047%=      5-min Rain = 0
KSE2 030954Z 19007KT 07/M04 A3005 RMK A01 T00671039  RH  047%=      5-min Rain = 0
KSE2 030955Z 19007KT 07/M04 A3005 RMK A01 T00661039  RH  047%=      5-min Rain = 0
KSE2 030956Z 19007KT 07/M04 A3005 RMK A01 T00661039  RH  047%=      5-min Rain = 0
KSE2 030957Z 19007KT 07/M04 A3005 RMK A01 T00661039  RH  047%=      5-min Rain = 0
KSE2 030958Z 19007KT 07/M04 A3005 RMK A01 T00651039  RH  047%=      5-min Rain = 0
KSE2 030959Z 19007KT 07/M04 A3005 RMK A01 T00651039  RH  047%=      5-min Rain = 0
KSE2 031000Z 19007KT 07/M04 A3005 RMK A01 T00651039  RH  047%=      5-min Rain = 0
KSE2 031001Z 18007KT 07/M04 A3005 RMK A01 T00651039  RH  047%=      5-min Rain = 0
KSE2 031002Z 18007KT 07/M04 A3005 RMK A01 T00651039  RH  048%=      5-min Rain = 0
KSE2 031003Z 18007KT 06/M04 A3005 RMK A01 T00641039  RH  048%=      5-min Rain = 0
KSE2 031004Z 18007KT 06/M04 A3005 RMK A01 T00641039  RH  048%=      5-min Rain = 0
KSE2 031005Z 18006KT 06/M04 A3005 RMK A01 T00641039  RH  048%=      5-min Rain = 0
KSE2 031006Z 18006KT 06/M04 A3005 RMK A01 T00641039  RH  048%=      5-min Rain = 0
KSE2 031007Z 18006KT 06/M04 A3005 RMK A01 T00641039  RH  048%=      5-min Rain = 0
KSE2 031008Z 18007KT 06/M04 A3005 RMK A01 T00631039  RH  048%=      5-min Rain = 0
KSE2 031009Z 18006KT 06/M04 A3005 RMK A01 T00631039  RH  048%=      5-min Rain = 0
KSE2 031010Z 19007KT 06/M04 A3005 RMK A01 T00641038  RH  048%=      5-min Rain = 0
KSE2 031011Z 19007KT 06/M04 A3005 RMK A01 T00631039  RH  048%=      5-min Rain = 0
KSE2 031012Z 19007KT 06/M04 A3005 RMK A01 T00631039  RH  048%=      5-min Rain = 0
KSE2 031013Z 19006KT 06/M04 A3005 RMK A01 T00631039  RH  048%=      5-min Rain = 0
KSE2 031014Z 19006KT 06/M04 A3005 RMK A01 T00631039  RH  048%=      5-min Rain = 0
KSE2 031015Z 18007KT 06/M04 A3005 RMK A01 T00621039  RH  048%=      5-min Rain = 0
KSE2 031016Z 19006KT 06/M04 A3005 RMK A01 T00621039  RH  048%=      5-min Rain = 0
KSE2 031017Z 19006KT 06/M04 A3005 RMK A01 T00621039  RH  048%=      5-min Rain = 0
KSE2 031018Z 18006KT 06/M04 A3005 RMK A01 T00621039  RH  048%=      5-min Rain = 0
KSE2 031019Z 19006KT 06/M04 A3005 RMK A01 T00621039  RH  048%=      5-min Rain = 0
KSE2 031020Z 18006KT 06/M04 A3005 RMK A01 T00621039  RH  048%=      5-min Rain = 0
KSE2 031021Z 19006KT 06/M04 A3005 RMK A01 T00621039  RH  048%=      5-min Rain = 0
KSE2 031022Z 19006KT 06/M04 A3005 RMK A01 T00621039  RH  048%=      5-min Rain = 0
KSE2 031023Z 19006KT 06/M04 A3004 RMK A01 T00621039  RH  048%=      5-min Rain = 0
KSE2 031024Z 19005KT 06/M04 A3004 RMK A01 T00621039  RH  048%=      5-min Rain = 0
KSE2 031025Z 19006KT 06/M04 A3004 RMK A01 T00621039  RH  048%=      5-min Rain = 0
KSE2 031026Z 19006KT 06/M04 A3004 RMK A01 T00621039  RH  048%=      5-min Rain = 0
KSE2 031027Z 18006KT 06/M04 A3004 RMK A01 T00611039  RH  048%=      5-min Rain = 0
KSE2 031028Z 18006KT 06/M04 A3004 RMK A01 T00611039  RH  048%=      5-min Rain = 0
KSE2 031029Z 18006KT 06/M04 A3004 RMK A01 T00611039  RH  049%=      5-min Rain = 0
KSE2 031030Z 18006KT 06/M04 A3004 RMK A01 T00601039  RH  049%=      5-min Rain = 0
KSE2 031031Z 18006KT 06/M04 A3004 RMK A01 T00601039  RH  049%=      5-min Rain = 0
KSE2 031032Z 17006KT 06/M04 A3004 RMK A01 T00601039  RH  049%=      5-min Rain = 0
KSE2 031033Z 17006KT 06/M04 A3004 RMK A01 T00601039  RH  049%=      5-min Rain = 0
KSE2 031034Z 17006KT 06/M04 A3004 RMK A01 T00591039  RH  049%=      5-min Rain = 0
KSE2 031035Z 17006KT 06/M04 A3004 RMK A01 T00591039  RH  049%=      5-min Rain = 0
KSE2 031036Z 18006KT 06/M04 A3004 RMK A01 T00591039  RH  049%=      5-min Rain = 0
KSE2 031037Z 17006KT 06/M04 A3003 RMK A01 T00591040  RH  049%=      5-min Rain = 0
KSE2 031038Z 17006KT 06/M04 A3003 RMK A01 T00591039  RH  049%=      5-min Rain = 0
KSE2 031039Z 17006KT 06/M04 A3003 RMK A01 T00591039  RH  049%=      5-min Rain = 0
KSE2 031040Z 16006KT 06/M04 A3003 RMK A01 T00591039  RH  049%=      5-min Rain = 0
KSE2 031041Z 16006KT 06/M04 A3003 RMK A01 T00591039  RH  049%=      5-min Rain = 0
KSE2 031042Z 16006KT 06/M04 A3003 RMK A01 T00591039  RH  049%=      5-min Rain = 0
KSE2 031043Z 16006KT 06/M04 A3003 RMK A01 T00581039  RH  049%=      5-min Rain = 0
KSE2 031044Z 16006KT 06/M04 A3003 RMK A01 T00581039  RH  049%=      5-min Rain = 0
KSE2 031045Z 16006KT 06/M04 A3003 RMK A01 T00581039  RH  049%=      5-min Rain = 0
KSE2 031046Z 16006KT 06/M04 A3003 RMK A01 T00581040  RH  049%=      5-min Rain = 0
KSE2 031047Z 16006KT 06/M04 A3003 RMK A01 T00581040  RH  049%=      5-min Rain = 0
KSE2 031048Z 16007KT 06/M04 A3003 RMK A01 T00581039  RH  049%=      5-min Rain = 0
KSE2 031049Z 16006KT 06/M04 A3003 RMK A01 T00581040  RH  049%=      5-min Rain = 0
KSE2 031050Z 16006KT 06/M04 A3003 RMK A01 T00591039  RH  049%=      5-min Rain = 0
KSE2 031051Z 17006KT 06/M04 A3003 RMK A01 T00591039  RH  049%=      5-min Rain = 0
KSE2 031052Z 17006KT 06/M04 A3003 RMK A01 T00591040  RH  049%=      5-min Rain = 0
KSE2 031053Z 17005KT 06/M04 A3003 RMK A01 T00591040  RH  049%=      5-min Rain = 0
KSE2 031054Z 17006KT 06/M04 A3003 RMK A01 T00591040  RH  049%=      5-min Rain = 0
KSE2 031055Z 17006KT 06/M04 A3003 RMK A01 T00591040  RH  049%=      5-min Rain = 0
KSE2 031056Z 17006KT 06/M04 A3003 RMK A01 T00591040  RH  049%=      5-min Rain = 0
KSE2 031057Z 18006KT 06/M04 A3003 RMK A01 T00601039  RH  049%=      5-min Rain = 0
KSE2 031058Z 17005KT 06/M04 A3003 RMK A01 T00601040  RH  049%=      5-min Rain = 0
KSE2 031059Z 17005KT 06/M04 A3003 RMK A01 T00601040  RH  049%=      5-min Rain = 0
KSE2 031100Z 17005KT 06/M04 A3003 RMK A01 T00601040  RH  049%=      5-min Rain = 0
KSE2 031101Z 18006KT 06/M04 A3003 RMK A01 T00601040  RH  049%=      5-min Rain = 0
KSE2 031102Z 18005KT 06/M04 A3003 RMK A01 T00601040  RH  049%=      5-min Rain = 0
KSE2 031103Z 17005KT 06/M04 A3003 RMK A01 T00601040  RH  049%=      5-min Rain = 0
KSE2 031104Z 17005KT 06/M04 A3003 RMK A01 T00601040  RH  049%=      5-min Rain = 0
KSE2 031105Z 18005KT 06/M04 A3003 RMK A01 T00611040  RH  048%=      5-min Rain = 0
KSE2 031106Z 18005KT 06/M04 A3003 RMK A01 T00611040  RH  048%=      5-min Rain = 0
KSE2 031107Z 17005KT 06/M04 A3003 RMK A01 T00611040  RH  048%=      5-min Rain = 0
KSE2 031108Z 18005KT 06/M04 A3003 RMK A01 T00601040  RH  048%=      5-min Rain = 0
KSE2 031109Z 18005KT 06/M04 A3003 RMK A01 T00601040  RH  049%=      5-min Rain = 0
KSE2 031110Z 19005KT 06/M04 A3004 RMK A01 T00591041  RH  049%=      5-min Rain = 0
KSE2 031111Z 19005KT 06/M04 A3004 RMK A01 T00581041  RH  049%=      5-min Rain = 0
KSE2 031112Z 18004KT 06/M04 A3004 RMK A01 T00581041  RH  049%=      5-min Rain = 0
KSE2 031113Z 19005KT 06/M04 A3004 RMK A01 T00571040  RH  049%=      5-min Rain = 0
KSE2 031114Z 19006KT 06/M04 A3004 RMK A01 T00571040  RH  050%=      5-min Rain = 0
KSE2 031115Z 19006KT 06/M04 A3004 RMK A01 T00571040  RH  050%=      5-min Rain = 0
KSE2 031116Z 19006KT 06/M04 A3004 RMK A01 T00581040  RH  050%=      5-min Rain = 0
KSE2 031117Z 19007KT 06/M04 A3004 RMK A01 T00591039  RH  049%=      5-min Rain = 0
KSE2 031118Z 20006KT 06/M04 A3004 RMK A01 T00591040  RH  049%=      5-min Rain = 0
KSE2 031119Z 20007KT 06/M04 A3004 RMK A01 T00601039  RH  049%=      5-min Rain = 0
KSE2 031120Z 19007KT 06/M04 A3004 RMK A01 T00611039  RH  049%=      5-min Rain = 0
KSE2 031121Z 20007KT 06/M04 A3004 RMK A01 T00611039  RH  048%=      5-min Rain = 0
KSE2 031122Z 20007KT 06/M04 A3004 RMK A01 T00621040  RH  048%=      5-min Rain = 0
KSE2 031123Z 19007KT 06/M04 A3004 RMK A01 T00631039  RH  048%=      5-min Rain = 0
KSE2 031124Z 20007KT 06/M04 A3004 RMK A01 T00631040  RH  048%=      5-min Rain = 0
KSE2 031125Z 20007KT 06/M04 A3004 RMK A01 T00641040  RH  047%=      5-min Rain = 0
KSE2 031126Z 20007KT 07/M04 A3004 RMK A01 T00661039  RH  047%=      5-min Rain = 0
KSE2 031127Z 20007KT 07/M04 A3004 RMK A01 T00671040  RH  047%=      5-min Rain = 0
KSE2 031128Z 19006KT 07/M04 A3004 RMK A01 T00671040  RH  046%=      5-min Rain = 0
KSE2 031129Z 19007KT 07/M04 A3004 RMK A01 T00671040  RH  046%=      5-min Rain = 0
KSE2 031130Z 19007KT 07/M04 A3004 RMK A01 T00671040  RH  046%=      5-min Rain = 0
KSE2 031131Z 19007KT 07/M04 A3004 RMK A01 T00671040  RH  046%=      5-min Rain = 0
KSE2 031132Z 19007KT 07/M04 A3004 RMK A01 T00661040  RH  047%=      5-min Rain = 0
KSE2 031133Z 19007KT 07/M04 A3004 RMK A01 T00661040  RH  047%=      5-min Rain = 0
KSE2 031134Z 19006KT 07/M04 A3004 RMK A01 T00661040  RH  047%=      5-min Rain = 0
KSE2 031135Z 19006KT 07/M04 A3004 RMK A01 T00661040  RH  047%=      5-min Rain = 0
KSE2 031136Z 19006KT 07/M04 A3004 RMK A01 T00651040  RH  047%=      5-min Rain = 0
KSE2 031137Z 19006KT 07/M04 A3004 RMK A01 T00651040  RH  047%=      5-min Rain = 0
KSE2 031138Z 19006KT 07/M04 A3004 RMK A01 T00651040  RH  047%=      5-min Rain = 0
KSE2 031139Z 19006KT 06/M04 A3004 RMK A01 T00641040  RH  047%=      5-min Rain = 0
KSE2 031140Z 19006KT 06/M04 A3004 RMK A01 T00641040  RH  047%=      5-min Rain = 0
KSE2 031141Z 19006KT 06/M04 A3004 RMK A01 T00641040  RH  047%=      5-min Rain = 0
KSE2 031142Z 19006KT 06/M04 A3004 RMK A01 T00641040  RH  047%=      5-min Rain = 0
KSE2 031143Z 19005KT 06/M04 A3004 RMK A01 T00631040  RH  048%=      5-min Rain = 0
KSE2 031144Z 19006KT 06/M04 A3004 RMK A01 T00631040  RH  048%=      5-min Rain = 0
KSE2 031145Z 19006KT 06/M04 A3004 RMK A01 T00621040  RH  048%=      5-min Rain = 0
KSE2 031146Z 19006KT 06/M04 A3004 RMK A01 T00621040  RH  048%=      5-min Rain = 0
KSE2 031147Z 19005KT 06/M04 A3004 RMK A01 T00621040  RH  048%=      5-min Rain = 0
KSE2 031148Z 19005KT 06/M04 A3004 RMK A01 T00611040  RH  048%=      5-min Rain = 0
KSE2 031149Z 19006KT 06/M04 A3004 RMK A01 T00611040  RH  048%=      5-min Rain = 0
KSE2 031150Z 18005KT 06/M04 A3004 RMK A01 T00611040  RH  048%=      5-min Rain = 0
KSE2 031151Z 19005KT 06/M04 A3005 RMK A01 T00611040  RH  048%=      5-min Rain = 0
KSE2 031152Z 19005KT 06/M04 A3005 RMK A01 T00601040  RH  049%=      5-min Rain = 0
KSE2 031153Z 19005KT 06/M04 A3005 RMK A01 T00591040  RH  049%=      5-min Rain = 0
KSE2 031154Z 18005KT 06/M04 A3005 RMK A01 T00591040  RH  049%=      5-min Rain = 0
KSE2 031155Z 18005KT 06/M04 A3005 RMK A01 T00591040  RH  049%=      5-min Rain = 0
KSE2 031156Z 19005KT 06/M04 A3005 RMK A01 T00591040  RH  049%=      5-min Rain = 0
KSE2 031157Z 19006KT 06/M04 A3005 RMK A01 T00591040  RH  049%=      5-min Rain = 0
KSE2 031158Z 19006KT 06/M04 A3005 RMK A01 T00591040  RH  049%=      5-min Rain = 0
KSE2 031159Z 19006KT 06/M04 A3005 RMK A01 T00591040  RH  049%=      5-min Rain = 0
KSE2 031200Z 19006KT 06/M04 A3005 RMK A01 T00601040  RH  049%=      5-min Rain = 0
KSE2 031201Z 19006KT 06/M04 A3005 RMK A01 T00611040  RH  048%=      5-min Rain = 0
KSE2 031202Z 19007KT 06/M04 A3005 RMK A01 T00621040  RH  048%=      5-min Rain = 0
KSE2 031203Z 19007KT 06/M04 A3005 RMK A01 T00621040  RH  048%=      5-min Rain = 0
KSE2 031204Z 20006KT 06/M04 A3005 RMK A01 T00621040  RH  048%=      5-min Rain = 0
KSE2 031205Z 20006KT 06/M04 A3005 RMK A01 T00621040  RH  048%=      5-min Rain = 0
KSE2 031206Z 19006KT 06/M04 A3005 RMK A01 T00631040  RH  048%=      5-min Rain = 0
KSE2 031207Z 20007KT 06/M04 A3004 RMK A01 T00641040  RH  047%=      5-min Rain = 0
KSE2 031208Z 19007KT 07/M04 A3004 RMK A01 T00651040  RH  047%=      5-min Rain = 0
KSE2 031209Z 19007KT 07/M04 A3004 RMK A01 T00661040  RH  047%=      5-min Rain = 0
KSE2 031210Z 20007KT 07/M04 A3004 RMK A01 T00661040  RH  047%=      5-min Rain = 0
KSE2 031211Z 20007KT 07/M04 A3004 RMK A01 T00671040  RH  046%=      5-min Rain = 0
KSE2 031212Z 19007KT 07/M04 A3004 RMK A01 T00681040  RH  046%=      5-min Rain = 0
KSE2 031213Z 19007KT 07/M04 A3004 RMK A01 T00681040  RH  046%=      5-min Rain = 0
KSE2 031214Z 20007KT 07/M04 A3004 RMK A01 T00681040  RH  046%=      5-min Rain = 0
KSE2 031215Z 20007KT 07/M04 A3004 RMK A01 T00681040  RH  046%=      5-min Rain = 0
KSE2 031216Z 20007KT 07/M04 A3004 RMK A01 T00691040  RH  046%=      5-min Rain = 0
KSE2 031217Z 20008KT 07/M04 A3004 RMK A01 T00701040  RH  046%=      5-min Rain = 0
KSE2 031218Z 20007KT 07/M04 A3004 RMK A01 T00711039  RH  045%=      5-min Rain = 0
KSE2 031219Z 20007KT 07/M04 A3004 RMK A01 T00711039  RH  045%=      5-min Rain = 0
KSE2 031220Z 20008KT 07/M04 A3004 RMK A01 T00711039  RH  045%=      5-min Rain = 0
KSE2 031221Z 20008KT 07/M04 A3004 RMK A01 T00711040  RH  045%=      5-min Rain = 0
KSE2 031222Z 20007KT 07/M04 A3004 RMK A01 T00721040  RH  045%=      5-min Rain = 0
KSE2 031223Z 20008KT 07/M04 A3004 RMK A01 T00721040  RH  045%=      5-min Rain = 0
KSE2 031224Z 20008KT 07/M04 A3004 RMK A01 T00721040  RH  045%=      5-min Rain = 0
KSE2 031225Z 20007KT 07/M04 A3004 RMK A01 T00721040  RH  045%=      5-min Rain = 0
KSE2 031226Z 20007KT 07/M04 A3004 RMK A01 T00721039  RH  045%=      5-min Rain = 0
KSE2 031227Z 20007KT 07/M04 A3004 RMK A01 T00721040  RH  045%=      5-min Rain = 0
KSE2 031228Z 20007KT 07/M04 A3004 RMK A01 T00731040  RH  045%=      5-min Rain = 0
KSE2 031229Z 21008KT 07/M04 A3004 RMK A01 T00731040  RH  045%=      5-min Rain = 0
KSE2 031230Z 20007KT 07/M04 A3004 RMK A01 T00741039  RH  044%=      5-min Rain = 0
KSE2 031231Z 21008KT 08/M04 A3004 RMK A01 T00751040  RH  044%=      5-min Rain = 0
KSE2 031232Z 21008KT 08/M04 A3004 RMK A01 T00751040  RH  044%=      5-min Rain = 0
KSE2 031233Z 20008KT 08/M04 A3004 RMK A01 T00761040  RH  044%=      5-min Rain = 0
KSE2 031234Z 21007KT 08/M04 A3004 RMK A01 T00761040  RH  044%=      5-min Rain = 0
KSE2 031235Z 21008KT 08/M04 A3004 RMK A01 T00771040  RH  043%=      5-min Rain = 0
KSE2 031236Z 21009KT 08/M04 A3004 RMK A01 T00781040  RH  043%=      5-min Rain = 0
KSE2 031237Z 21008KT 08/M04 A3004 RMK A01 T00781040  RH  043%=      5-min Rain = 0
KSE2 031238Z 21010KT 08/M04 A3004 RMK A01 T00781040  RH  043%=      5-min Rain = 0
KSE2 031239Z 20008KT 08/M04 A3004 RMK A01 T00791040  RH  043%=      5-min Rain = 0
KSE2 031240Z 21009G14KT 08/M04 A3004 RMK A01 T00791040  RH  043%=      5-min Rain = 0
KSE2 031241Z 21009KT 08/M04 A3004 RMK A01 T00791040  RH  043%=      5-min Rain = 0
KSE2 031242Z 21010KT 08/M04 A3004 RMK A01 T00801040  RH  043%=      5-min Rain = 0
KSE2 031243Z 21010KT 08/M04 A3004 RMK A01 T00801040  RH  043%=      5-min Rain = 0
KSE2 031244Z 21008KT 08/M04 A3004 RMK A01 T00801040  RH  043%=      5-min Rain = 0
KSE2 031245Z 21009KT 08/M04 A3004 RMK A01 T00801039  RH  043%=      5-min Rain = 0
KSE2 031246Z 21010KT 08/M04 A3003 RMK A01 T00791039  RH  043%=      5-min Rain = 0
KSE2 031247Z 21008KT 08/M04 A3004 RMK A01 T00801039  RH  043%=      5-min Rain = 0
KSE2 031248Z 21008KT 08/M04 A3003 RMK A01 T00801039  RH  043%=      5-min Rain = 0
KSE2 031249Z 21009KT 08/M04 A3003 RMK A01 T00801039  RH  043%=      5-min Rain = 0
KSE2 031250Z 21010KT 08/M04 A3003 RMK A01 T00801038  RH  043%=      5-min Rain = 0
KSE2 031251Z 20009KT 08/M04 A3003 RMK A01 T00811038  RH  043%=      5-min Rain = 0
KSE2 031252Z 21007KT 08/M04 A3003 RMK A01 T00811038  RH  043%=      5-min Rain = 0
KSE2 031253Z 21008KT 08/M04 A3004 RMK A01 T00811038  RH  043%=      5-min Rain = 0
KSE2 031254Z 21007KT 08/M04 A3004 RMK A01 T00801038  RH  043%=      5-min Rain = 0
KSE2 031255Z 21008KT 08/M04 A3004 RMK A01 T00811038  RH  043%=      5-min Rain = 0
KSE2 031256Z 21008KT 08/M04 A3004 RMK A01 T00811038  RH  043%=      5-min Rain = 0
KSE2 031257Z 22010KT 08/M04 A3004 RMK A01 T00811038  RH  043%=      5-min Rain = 0
KSE2 031258Z 22009KT 08/M04 A3004 RMK A01 T00831037  RH  042%=      5-min Rain = 0
KSE2 031259Z 21009KT 08/M04 A3004 RMK A01 T00841037  RH  042%=      5-min Rain = 0
KSE2 031300Z 22008KT 08/M04 A3004 RMK A01 T00841037  RH  042%=      5-min Rain = 0
KSE2 031301Z 21008KT 08/M04 A3004 RMK A01 T00831037  RH  042%=      5-min Rain = 0
KSE2 031302Z 22008KT 08/M04 A3004 RMK A01 T00841037  RH  042%=      5-min Rain = 0
KSE2 031303Z 21011KT 08/M04 A3004 RMK A01 T00841037  RH  042%=      5-min Rain = 0
KSE2 031304Z 21008KT 09/M04 A3004 RMK A01 T00851037  RH  042%=      5-min Rain = 0
KSE2 031305Z 22008KT 09/M04 A3004 RMK A01 T00851037  RH  042%=      5-min Rain = 0
KSE2 031306Z 22009KT 09/M04 A3004 RMK A01 T00851037  RH  042%=      5-min Rain = 0
KSE2 031307Z 22011KT 09/M04 A3004 RMK A01 T00851037  RH  042%=      5-min Rain = 0
KSE2 031308Z 21008KT 09/M04 A3004 RMK A01 T00861037  RH  042%=      5-min Rain = 0
KSE2 031309Z 21010KT 09/M04 A3004 RMK A01 T00861036  RH  042%=      5-min Rain = 0
KSE2 031310Z 22009KT 09/M04 A3004 RMK A01 T00861037  RH  042%=      5-min Rain = 0
KSE2 031311Z 22011KT 09/M04 A3004 RMK A01 T00861037  RH  042%=      5-min Rain = 0
KSE2 031312Z 21010KT 09/M04 A3004 RMK A01 T00871037  RH  042%=      5-min Rain = 0
KSE2 031313Z 21009KT 09/M04 A3004 RMK A01 T00871037  RH  042%=      5-min Rain = 0
KSE2 031314Z 21008KT 09/M04 A3004 RMK A01 T00871037  RH  042%=      5-min Rain = 0
KSE2 031315Z 21010KT 09/M04 A3004 RMK A01 T00861037  RH  042%=      5-min Rain = 0
KSE2 031316Z 21010KT 09/M04 A3004 RMK A01 T00861036  RH  042%=      5-min Rain = 0
KSE2 031317Z 21009KT 09/M04 A3004 RMK A01 T00851037  RH  042%=      5-min Rain = 0
KSE2 031318Z 21009KT 09/M04 A3004 RMK A01 T00851037  RH  042%=      5-min Rain = 0
KSE2 031319Z 21010KT 09/M04 A3004 RMK A01 T00861036  RH  042%=      5-min Rain = 0
KSE2 031320Z 21008G13KT 09/M04 A3004 RMK A01 T00851037  RH  042%=      5-min Rain = 0
KSE2 031321Z 21009KT 09/M04 A3004 RMK A01 T00861036  RH  042%=      5-min Rain = 0
KSE2 031322Z 22008G15KT 09/M04 A3004 RMK A01 T00861036  RH  042%=      5-min Rain = 0
KSE2 031323Z 21009KT 09/M04 A3004 RMK A01 T00851036  RH  042%=      5-min Rain = 0
KSE2 031324Z 21009KT 09/M04 A3004 RMK A01 T00851036  RH  042%=      5-min Rain = 0
KSE2 031325Z 21008KT 09/M04 A3004 RMK A01 T00851036  RH  042%=      5-min Rain = 0
KSE2 031326Z 21008KT 09/M04 A3004 RMK A01 T00851036  RH  042%=      5-min Rain = 0
KSE2 031327Z 21011KT 09/M04 A3004 RMK A01 T00851036  RH  042%=      5-min Rain = 0
KSE2 031328Z 21010KT 09/M04 A3004 RMK A01 T00851036  RH  042%=      5-min Rain = 0
KSE2 031329Z 21009KT 09/M04 A3004 RMK A01 T00851036  RH  042%=      5-min Rain = 0
KSE2 031330Z 21008KT 09/M04 A3004 RMK A01 T00861036  RH  042%=      5-min Rain = 0
KSE2 031331Z 21010KT 09/M04 A3004 RMK A01 T00861036  RH  042%=      5-min Rain = 0
KSE2 031332Z 21008KT 09/M04 A3004 RMK A01 T00851036  RH  042%=      5-min Rain = 0
KSE2 031333Z 21007KT 09/M04 A3004 RMK A01 T00851036  RH  042%=      5-min Rain = 0
KSE2 031334Z 20009KT 09/M04 A3004 RMK A01 T00851036  RH  042%=      5-min Rain = 0
KSE2 031335Z 21010KT 09/M04 A3004 RMK A01 T00851035  RH  042%=      5-min Rain = 0
KSE2 031336Z 21009G14KT 09/M04 A3004 RMK A01 T00861035  RH  042%=      5-min Rain = 0
KSE2 031337Z 20009G14KT 09/M04 A3004 RMK A01 T00861036  RH  042%=      5-min Rain = 0
KSE2 031338Z 21009KT 09/M04 A3004 RMK A01 T00861035  RH  042%=      5-min Rain = 0
KSE2 031339Z 21010KT 09/M04 A3004 RMK A01 T00861035  RH  042%=      5-min Rain = 0
KSE2 031340Z 21009KT 09/M04 A3004 RMK A01 T00871035  RH  042%=      5-min Rain = 0
KSE2 031341Z 21010KT 09/M04 A3004 RMK A01 T00871035  RH  042%=      5-min Rain = 0
KSE2 031342Z 21008KT 09/M03 A3004 RMK A01 T00871034  RH  042%=      5-min Rain = 0
KSE2 031343Z 21009KT 09/M04 A3004 RMK A01 T00861035  RH  042%=      5-min Rain = 0
KSE2 031344Z 21010KT 09/M03 A3004 RMK A01 T00871034  RH  042%=      5-min Rain = 0
KSE2 031345Z 21009KT 09/M03 A3004 RMK A01 T00871034  RH  042%=      5-min Rain = 0
KSE2 031346Z 22009KT 09/M03 A3004 RMK A01 T00881034  RH  042%=      5-min Rain = 0
KSE2 031347Z 21010KT 09/M03 A3004 RMK A01 T00881034  RH  042%=      5-min Rain = 0
KSE2 031348Z 22011KT 09/M03 A3004 RMK A01 T00891034  RH  042%=      5-min Rain = 0
KSE2 031349Z 21008KT 09/M03 A3004 RMK A01 T00891034  RH  042%=      5-min Rain = 0
KSE2 031350Z 22008KT 09/M03 A3004 RMK A01 T00891034  RH  042%=      5-min Rain = 0
KSE2 031351Z 21009KT 09/M03 A3004 RMK A01 T00901033  RH  042%=      5-min Rain = 0
KSE2 031352Z 22009KT 09/M03 A3004 RMK A01 T00901033  RH  042%=      5-min Rain = 0
KSE2 031353Z 21009KT 09/M03 A3004 RMK A01 T00901033  RH  042%=      5-min Rain = 0
KSE2 031354Z 22010KT 09/M03 A3004 RMK A01 T00901033  RH  042%=      5-min Rain = 0
KSE2 031355Z 21009KT 09/M03 A3004 RMK A01 T00911033  RH  042%=      5-min Rain = 0
KSE2 031356Z 22011KT 09/M03 A3004 RMK A01 T00911033  RH  042%=      5-min Rain = 0
KSE2 031357Z 21008KT 09/M03 A3004 RMK A01 T00911033  RH  041%=      5-min Rain = 0
KSE2 031358Z 22010KT 09/M03 A3004 RMK A01 T00921033  RH  041%=      5-min Rain = 0
KSE2 031359Z 22009KT 09/M03 A3004 RMK A01 T00921032  RH  041%=      5-min Rain = 0
KSE2 031400Z 22010KT 09/M03 A3004 RMK A01 T00931032  RH  041%=      5-min Rain = 0
KSE2 031401Z 21011G16KT 09/M03 A3005 RMK A01 T00931032  RH  041%=      5-min Rain = 0
KSE2 031402Z 21010KT 09/M03 A3005 RMK A01 T00931032  RH  041%=      5-min Rain = 0
KSE2 031403Z 21009KT 09/M03 A3005 RMK A01 T00941032  RH  041%=      5-min Rain = 0
KSE2 031404Z 22009G14KT 09/M03 A3005 RMK A01 T00941032  RH  041%=      5-min Rain = 0
KSE2 031405Z 22009KT 09/M03 A3005 RMK A01 T00941031  RH  041%=      5-min Rain = 0
KSE2 031406Z 21010G15KT 10/M03 A3005 RMK A01 T00951031  RH  041%=      5-min Rain = 0
KSE2 031407Z 21012KT 10/M03 A3005 RMK A01 T00951031  RH  041%=      5-min Rain = 0
KSE2 031408Z 22010KT 10/M03 A3005 RMK A01 T00951031  RH  041%=      5-min Rain = 0
KSE2 031409Z 21009KT 10/M03 A3005 RMK A01 T00961031  RH  041%=      5-min Rain = 0
KSE2 031410Z 20010KT 10/M03 A3005 RMK A01 T00961030  RH  041%=      5-min Rain = 0
KSE2 031411Z 21009KT 10/M03 A3005 RMK A01 T00961031  RH  041%=      5-min Rain = 0
KSE2 031412Z 21011KT 10/M03 A3005 RMK A01 T00971030  RH  041%=      5-min Rain = 0
KSE2 031413Z 21009KT 10/M03 A3005 RMK A01 T00971031  RH  041%=      5-min Rain = 0
KSE2 031414Z 20009G14KT 10/M03 A3005 RMK A01 T00971030  RH  041%=      5-min Rain = 0
KSE2 031415Z 22012KT 10/M03 A3005 RMK A01 T00981030  RH  041%=      5-min Rain = 0
KSE2 031416Z 20010KT 10/M03 A3005 RMK A01 T00981030  RH  040%=      5-min Rain = 0
KSE2 031417Z 21009KT 10/M03 A3005 RMK A01 T00981030  RH  040%=      5-min Rain = 0
KSE2 031418Z 21007KT 10/M03 A3005 RMK A01 T00991029  RH  040%=      5-min Rain = 0
KSE2 031419Z 22011KT 10/M03 A3005 RMK A01 T01001028  RH  040%=      5-min Rain = 0
KSE2 031420Z 22012KT 10/M03 A3005 RMK A01 T01001028  RH  040%=      5-min Rain = 0
KSE2 031421Z 22009KT 10/M03 A3005 RMK A01 T01001029  RH  040%=      5-min Rain = 0
KSE2 031422Z 21008KT 10/M03 A3005 RMK A01 T01011028  RH  040%=      5-min Rain = 0
KSE2 031423Z 22011KT 10/M03 A3005 RMK A01 T01021027  RH  040%=      5-min Rain = 0
KSE2 031424Z 22011KT 10/M03 A3005 RMK A01 T01021028  RH  040%=      5-min Rain = 0
KSE2 031425Z 22011KT 10/M03 A3005 RMK A01 T01021028  RH  040%=      5-min Rain = 0
KSE2 031426Z 21012KT 10/M03 A3005 RMK A01 T01031028  RH  040%=      5-min Rain = 0
KSE2 031427Z 21010KT 10/M03 A3005 RMK A01 T01041028  RH  040%=      5-min Rain = 0
KSE2 031428Z 22010KT 10/M03 A3005 RMK A01 T01041028  RH  040%=      5-min Rain = 0
KSE2 031429Z 22008KT 10/M03 A3005 RMK A01 T01041027  RH  040%=      5-min Rain = 0
KSE2 031430Z 21010G15KT 11/M03 A3005 RMK A01 T01051025  RH  040%=      5-min Rain = 0
KSE2 031431Z 22011KT 11/M03 A3005 RMK A01 T01061026  RH  039%=      5-min Rain = 0
KSE2 031432Z 21009KT 11/M03 A3005 RMK A01 T01061027  RH  039%=      5-min Rain = 0
KSE2 031433Z 21009KT 11/M03 A3005 RMK A01 T01061026  RH  039%=      5-min Rain = 0
KSE2 031434Z 21010KT 11/M03 A3005 RMK A01 T01071025  RH  039%=      5-min Rain = 0
KSE2 031435Z 21010KT 11/M03 A3005 RMK A01 T01071025  RH  039%=      5-min Rain = 0
KSE2 031436Z 21010KT 11/M03 A3005 RMK A01 T01071026  RH  039%=      5-min Rain = 0
KSE2 031437Z 22007KT 11/M03 A3005 RMK A01 T01081025  RH  039%=      5-min Rain = 0
KSE2 031438Z 21006KT 11/M02 A3005 RMK A01 T01091024  RH  040%=      5-min Rain = 0
KSE2 031439Z 21008G13KT 11/M02 A3005 RMK A01 T01091024  RH  039%=      5-min Rain = 0
KSE2 031440Z 21010KT 11/M02 A3005 RMK A01 T01101024  RH  039%=      5-min Rain = 0
KSE2 031441Z 21009KT 11/M02 A3006 RMK A01 T01111024  RH  039%=      5-min Rain = 0
KSE2 031442Z 21010KT 11/M03 A3006 RMK A01 T01111025  RH  039%=      5-min Rain = 0
KSE2 031443Z 21010G15KT 11/M03 A3006 RMK A01 T01111025  RH  039%=      5-min Rain = 0
KSE2 031444Z 21012KT 11/M03 A3006 RMK A01 T01121025  RH  038%=      5-min Rain = 0
KSE2 031445Z 21009KT 11/M03 A3006 RMK A01 T01121025  RH  038%=      5-min Rain = 0
KSE2 031446Z 21011KT 11/M02 A3006 RMK A01 T01131024  RH  038%=      5-min Rain = 0
KSE2 031447Z 21008KT 11/M02 A3006 RMK A01 T01141023  RH  038%=      5-min Rain = 0
KSE2 031448Z 21009KT 12/M02 A3006 RMK A01 T01151023  RH  038%=      5-min Rain = 0
KSE2 031449Z 21010KT 12/M02 A3006 RMK A01 T01161023  RH  038%=      5-min Rain = 0
KSE2 031450Z 22008KT 12/M02 A3006 RMK A01 T01171022  RH  038%=      5-min Rain = 0
KSE2 031451Z 21012KT 12/M02 A3006 RMK A01 T01171023  RH  038%=      5-min Rain = 0
KSE2 031452Z 21011KT 12/M02 A3006 RMK A01 T01171024  RH  037%=      5-min Rain = 0
KSE2 031453Z 21010KT 12/M02 A3006 RMK A01 T01181023  RH  037%=      5-min Rain = 0
KSE2 031454Z 21010KT 12/M02 A3006 RMK A01 T01191022  RH  037%=      5-min Rain = 0
KSE2 031455Z 21009G14KT 12/M02 A3006 RMK A01 T01191023  RH  037%=      5-min Rain = 0
KSE2 031456Z 21011KT 12/M02 A3005 RMK A01 T01201022  RH  037%=      5-min Rain = 0
KSE2 031457Z 22009KT 12/M02 A3005 RMK A01 T01201022  RH  037%=      5-min Rain = 0
KSE2 031458Z 21008G13KT 12/M02 A3005 RMK A01 T01211022  RH  037%=      5-min Rain = 0
KSE2 031459Z 22011KT 12/M02 A3005 RMK A01 T01221022  RH  037%=      5-min Rain = 0
KSE2 031500Z 20010KT 12/M02 A3005 RMK A01 T01221022  RH  037%=      5-min Rain = 0
KSE2 031501Z 21009KT 12/M02 A3005 RMK A01 T01221021  RH  037%=      5-min Rain = 0
KSE2 031502Z 21008G13KT 12/M02 A3005 RMK A01 T01231021  RH  037%=      5-min Rain = 0
KSE2 031503Z 20013KT 12/M02 A3005 RMK A01 T01241022  RH  036%=      5-min Rain = 0
KSE2 031504Z 22011KT 12/M02 A3005 RMK A01 T01241023  RH  036%=      5-min Rain = 0
KSE2 031505Z 21009KT 12/M02 A3005 RMK A01 T01241022  RH  036%=      5-min Rain = 0
KSE2 031506Z 22012KT 12/M02 A3005 RMK A01 T01241022  RH  036%=      5-min Rain = 0
KSE2 031507Z 22011KT 13/M02 A3005 RMK A01 T01251023  RH  036%=      5-min Rain = 0
KSE2 031508Z 21009KT 13/M02 A3005 RMK A01 T01251023  RH  036%=      5-min Rain = 0
KSE2 031509Z 21010KT 13/M02 A3005 RMK A01 T01261022  RH  036%=      5-min Rain = 0
KSE2 031510Z 22012G17KT 13/M02 A3005 RMK A01 T01271022  RH  035%=      5-min Rain = 0
KSE2 031511Z 22010KT 13/M02 A3005 RMK A01 T01261023  RH  035%=      5-min Rain = 0
KSE2 031512Z 20010G15KT 13/M02 A3005 RMK A01 T01261022  RH  036%=      5-min Rain = 0
KSE2 031513Z 21012G17KT 13/M02 A3005 RMK A01 T01281021  RH  036%=      5-min Rain = 0
KSE2 031514Z 21008KT 13/M02 A3005 RMK A01 T01281022  RH  035%=      5-min Rain = 0
KSE2 031515Z 21010KT 13/M02 A3005 RMK A01 T01291021  RH  035%=      5-min Rain = 0
KSE2 031516Z 21010KT 13/M02 A3005 RMK A01 T01301021  RH  035%=      5-min Rain = 0
KSE2 031517Z 21010KT 13/M02 A3005 RMK A01 T01311021  RH  035%=      5-min Rain = 0
KSE2 031518Z 21011G17KT 13/M02 A3005 RMK A01 T01321021  RH  035%=      5-min Rain = 0
KSE2 031519Z 22013G18KT 13/M02 A3005 RMK A01 T01331022  RH  034%=      5-min Rain = 0
KSE2 031520Z 20012G17KT 13/M02 A3005 RMK A01 T01321023  RH  034%=      5-min Rain = 0
KSE2 031521Z 21013KT 13/M02 A3005 RMK A01 T01321023  RH  034%=      5-min Rain = 0
KSE2 031522Z 21011KT 13/M02 A3005 RMK A01 T01311023  RH  034%=      5-min Rain = 0
KSE2 031523Z 21011G17KT 13/M02 A3005 RMK A01 T01331021  RH  034%=      5-min Rain = 0
KSE2 031524Z 22012KT 13/M02 A3005 RMK A01 T01341021  RH  034%=      5-min Rain = 0
KSE2 031525Z 22014KT 14/M02 A3005 RMK A01 T01351022  RH  034%=      5-min Rain = 0
KSE2 031526Z 21011KT 14/M02 A3005 RMK A01 T01351022  RH  034%=      5-min Rain = 0
KSE2 031527Z 21012G17KT 13/M02 A3005 RMK A01 T01341022  RH  034%=      5-min Rain = 0
KSE2 031528Z 21012KT 13/M02 A3006 RMK A01 T01341023  RH  034%=      5-min Rain = 0
KSE2 031529Z 21013KT 14/M02 A3006 RMK A01 T01351022  RH  034%=      5-min Rain = 0
KSE2 031530Z 22012KT 14/M02 A3006 RMK A01 T01351022  RH  034%=      5-min Rain = 0
KSE2 031531Z 21015KT 14/M02 A3006 RMK A01 T01361022  RH  033%=      5-min Rain = 0
KSE2 031532Z 22013KT 14/M02 A3006 RMK A01 T01361022  RH  033%=      5-min Rain = 0
KSE2 031533Z 21013G18KT 14/M02 A3006 RMK A01 T01361022  RH  033%=      5-min Rain = 0
KSE2 031534Z 21013KT 14/M02 A3006 RMK A01 T01371021  RH  033%=      5-min Rain = 0
KSE2 031535Z 21014KT 14/M02 A3006 RMK A01 T01371022  RH  033%=      5-min Rain = 0
KSE2 031536Z 20014G19KT 14/M02 A3006 RMK A01 T01381022  RH  033%=      5-min Rain = 0
KSE2 031537Z 21011G16KT 14/M02 A3006 RMK A01 T01391021  RH  033%=      5-min Rain = 0
KSE2 031538Z 21015KT 14/M02 A3006 RMK A01 T01391022  RH  033%=      5-min Rain = 0
KSE2 031539Z 21012G17KT 14/M02 A3006 RMK A01 T01391022  RH  033%=      5-min Rain = 0
KSE2 031540Z 21014G19KT 14/M02 A3006 RMK A01 T01401021  RH  033%=      5-min Rain = 0
KSE2 031541Z 22011KT 14/M02 A3006 RMK A01 T01411020  RH  033%=      5-min Rain = 0
KSE2 031542Z 21012G18KT 14/M02 A3006 RMK A01 T01421020  RH  033%=      5-min Rain = 0
KSE2 031543Z 21010G15KT 14/M02 A3006 RMK A01 T01431021  RH  032%=      5-min Rain = 0
KSE2 031544Z 22009G14KT 14/M02 A3006 RMK A01 T01431020  RH  032%=      5-min Rain = 0
KSE2 031545Z 22010KT 14/M02 A3006 RMK A01 T01441018  RH  033%=      5-min Rain = 0
KSE2 031546Z 21010KT 15/M02 A3006 RMK A01 T01451019  RH  032%=      5-min Rain = 0
KSE2 031547Z 22009KT 15/M02 A3006 RMK A01 T01451018  RH  032%=      5-min Rain = 0
KSE2 031548Z 22009KT 15/M02 A3006 RMK A01 T01471016  RH  032%=      5-min Rain = 0
KSE2 031549Z 22009KT 15/M02 A3006 RMK A01 T01481016  RH  032%=      5-min Rain = 0
KSE2 031550Z 21008KT 15/M02 A3006 RMK A01 T01491015  RH  032%=      5-min Rain = 0
KSE2 031551Z 20011KT 15/M02 A3006 RMK A01 T01511015  RH  032%=      5-min Rain = 0
KSE2 031552Z 22011KT 15/M02 A3006 RMK A01 T01501016  RH  032%=      5-min Rain = 0
KSE2 031553Z 21009KT 15/M02 A3006 RMK A01 T01501017  RH  032%=      5-min Rain = 0
KSE2 031554Z 20011KT 15/M02 A3006 RMK A01 T01501016  RH  032%=      5-min Rain = 0
KSE2 031555Z 20012KT 15/M02 A3006 RMK A01 T01511016  RH  032%=      5-min Rain = 0
KSE2 031556Z 19010KT 15/M02 A3006 RMK A01 T01511016  RH  032%=      5-min Rain = 0
KSE2 031557Z 20010KT 15/M02 A3006 RMK A01 T01511016  RH  032%=      5-min Rain = 0
KSE2 031558Z 20011KT 15/M02 A3006 RMK A01 T01511015  RH  032%=      5-min Rain = 0
KSE2 031559Z 20011KT 15/M01 A3006 RMK A01 T01521014  RH  032%=      5-min Rain = 0
KSE2 031600Z 21009KT 15/M01 A3006 RMK A01 T01531014  RH  032%=      5-min Rain = 0
KSE2 031601Z 21011KT 15/M01 A3006 RMK A01 T01541013  RH  032%=      5-min Rain = 0
KSE2 031602Z 21012KT 15/M01 A3006 RMK A01 T01541014  RH  032%=      5-min Rain = 0
KSE2 031603Z 22013KT 15/M01 A3006 RMK A01 T01541014  RH  031%=      5-min Rain = 0
KSE2 031604Z 22012G17KT 15/M02 A3006 RMK A01 T01541015  RH  031%=      5-min Rain = 0
KSE2 031605Z 21012KT 15/M02 A3006 RMK A01 T01531015  RH  032%=      5-min Rain = 0
KSE2 031606Z 21011G16KT 15/M02 A3006 RMK A01 T01531015  RH  032%=      5-min Rain = 0
KSE2 031607Z 20013KT 15/M02 A3006 RMK A01 T01531015  RH  032%=      5-min Rain = 0
KSE2 031608Z 20012KT 16/M02 A3006 RMK A01 T01551015  RH  031%=      5-min Rain = 0
KSE2 031609Z 20011KT 16/M02 A3006 RMK A01 T01551015  RH  031%=      5-min Rain = 0
KSE2 031610Z 20009G14KT 16/M01 A3006 RMK A01 T01561013  RH  031%=      5-min Rain = 0
KSE2 031611Z 20012KT 16/M01 A3006 RMK A01 T01581014  RH  031%=      5-min Rain = 0
KSE2 031612Z 20011KT 16/M01 A3006 RMK A01 T01581014  RH  031%=      5-min Rain = 0
KSE2 031613Z 20010KT 16/M02 A3006 RMK A01 T01571015  RH  031%=      5-min Rain = 0
KSE2 031614Z 22010KT 16/M01 A3006 RMK A01 T01581014  RH  031%=      5-min Rain = 0
KSE2 031615Z 21010KT 16/M01 A3006 RMK A01 T01581013  RH  031%=      5-min Rain = 0
KSE2 031616Z 22013KT 16/M01 A3006 RMK A01 T01591013  RH  031%=      5-min Rain = 0
KSE2 031617Z 21011KT 16/M01 A3006 RMK A01 T01591012  RH  031%=      5-min Rain = 0
KSE2 031618Z 22011KT 16/M01 A3006 RMK A01 T01601012  RH  031%=      5-min Rain = 0
KSE2 031619Z 22010KT 16/M01 A3006 RMK A01 T01611012  RH  031%=      5-min Rain = 0
KSE2 031620Z 21012KT 16/M01 A3006 RMK A01 T01611012  RH  031%=      5-min Rain = 0
KSE2 031621Z 21009KT 16/M01 A3006 RMK A01 T01611012  RH  031%=      5-min Rain = 0
KSE2 031622Z 23009G15KT 16/M01 A3006 RMK A01 T01631010  RH  031%=      5-min Rain = 0
KSE2 031623Z 23013KT 17/M01 A3006 RMK A01 T01651011  RH  030%=      5-min Rain = 0
KSE2 031624Z 23012KT 16/M01 A3006 RMK A01 T01631013  RH  030%=      5-min Rain = 0
KSE2 031625Z 23013KT 16/M01 A3006 RMK A01 T01631012  RH  030%=      5-min Rain = 0
KSE2 031626Z 23013KT 16/M01 A3006 RMK A01 T01621013  RH  030%=      5-min Rain = 0
KSE2 031627Z 23013KT 16/M01 A3006 RMK A01 T01631013  RH  030%=      5-min Rain = 0
KSE2 031628Z 23009KT 16/M01 A3006 RMK A01 T01641011  RH  030%=      5-min Rain = 0
KSE2 031629Z 23011KT 17/M01 A3006 RMK A01 T01661010  RH  030%=      5-min Rain = 0
KSE2 031630Z 23011KT 17/M01 A3006 RMK A01 T01661010  RH  030%=      5-min Rain = 0
KSE2 031631Z 23010G15KT 17/M01 A3006 RMK A01 T01671009  RH  030%=      5-min Rain = 0
KSE2 031632Z 23012KT 17/M01 A3006 RMK A01 T01691009  RH  030%=      5-min Rain = 0
KSE2 031633Z 23014KT 17/M01 A3006 RMK A01 T01691011  RH  029%=      5-min Rain = 0
KSE2 031634Z 23015KT 17/M01 A3006 RMK A01 T01671012  RH  030%=      5-min Rain = 0
KSE2 031635Z 24010KT 17/M01 A3006 RMK A01 T01661011  RH  030%=      5-min Rain = 0
KSE2 031636Z 23012KT 17/M01 A3006 RMK A01 T01661010  RH  030%=      5-min Rain = 0
KSE2 031637Z 24014KT 17/M01 A3006 RMK A01 T01671010  RH  030%=      5-min Rain = 0
KSE2 031638Z 23011G16KT 17/M01 A3006 RMK A01 T01661010  RH  030%=      5-min Rain = 0
KSE2 031639Z 23011KT 17/M01 A3005 RMK A01 T01681007  RH  030%=      5-min Rain = 0
KSE2 031640Z 23013KT 17/M01 A3005 RMK A01 T01691009  RH  030%=      5-min Rain = 0
KSE2 031641Z 23014KT 17/M01 A3005 RMK A01 T01691009  RH  030%=      5-min Rain = 0
KSE2 031642Z 22012KT 17/M01 A3005 RMK A01 T01691008  RH  030%=      5-min Rain = 0
KSE2 031643Z 22009KT 17/M01 A3005 RMK A01 T01711007  RH  030%=      5-min Rain = 0
KSE2 031644Z 22012G18KT 17/M01 A3005 RMK A01 T01731006  RH  030%=      5-min Rain = 0
KSE2 031645Z 22013KT 17/M01 A3005 RMK A01 T01731008  RH  029%=      5-min Rain = 0
KSE2 031646Z 21011KT 17/M01 A3005 RMK A01 T01721007  RH  030%=      5-min Rain = 0
KSE2 031647Z 21010KT 17/M01 A3005 RMK A01 T01731006  RH  030%=      5-min Rain = 0
KSE2 031648Z 23012G17KT 18/M01 A3005 RMK A01 T01751005  RH  030%=      5-min Rain = 0
KSE2 031649Z 23013G18KT 18/M01 A3005 RMK A01 T01751008  RH  029%=      5-min Rain = 0
KSE2 031650Z 23013KT 17/M01 A3005 RMK A01 T01741007  RH  029%=      5-min Rain = 0
KSE2 031651Z 23013KT 17/M01 A3005 RMK A01 T01741008  RH  029%=      5-min Rain = 0
KSE2 031652Z 22012KT 17/M01 A3005 RMK A01 T01731008  RH  029%=      5-min Rain = 0
KSE2 031653Z 23009KT 17/M01 A3006 RMK A01 T01731006  RH  030%=      5-min Rain = 0
KSE2 031654Z 23011KT 18/M01 A3006 RMK A01 T01761005  RH  029%=      5-min Rain = 0
KSE2 031655Z 23013KT 18/M01 A3006 RMK A01 T01761006  RH  029%=      5-min Rain = 0
KSE2 031656Z 23012KT 18/M01 A3006 RMK A01 T01751007  RH  029%=      5-min Rain = 0
KSE2 031657Z 22011KT 18/M01 A3006 RMK A01 T01751005  RH  029%=      5-min Rain = 0
KSE2 031658Z 22010KT 18/M01 A3006 RMK A01 T01761005  RH  029%=      5-min Rain = 0
KSE2 031659Z 23012KT 18/M01 A3005 RMK A01 T01761005  RH  029%=      5-min Rain = 0
KSE2 031700Z 23012KT 18/M01 A3005 RMK A01 T01751007  RH  029%=      5-min Rain = 0
KSE2 031701Z 22012KT 17/M01 A3005 RMK A01 T01731005  RH  030%=      5-min Rain = 0
KSE2 031702Z 22012KT 17/M01 A3005 RMK A01 T01741005  RH  030%=      5-min Rain = 0
KSE2 031703Z 22009KT 18/M00 A3005 RMK A01 T01751004  RH  030%=      5-min Rain = 0
KSE2 031704Z 22011KT 18/M00 A3005 RMK A01 T01771003  RH  030%=      5-min Rain = 0
KSE2 031705Z 21011KT 18/M00 A3005 RMK A01 T01781003  RH  029%=      5-min Rain = 0
KSE2 031706Z 23012G17KT 18/M00 A3005 RMK A01 T01781004  RH  029%=      5-min Rain = 0
KSE2 031707Z 22012KT 18/M01 A3005 RMK A01 T01771005  RH  029%=      5-min Rain = 0
KSE2 031708Z 23009KT 18/M00 A3005 RMK A01 T01771003  RH  030%=      5-min Rain = 0
KSE2 031709Z 23010KT 18/00 A3005 RMK A01 T018000-0  RH  030%=      5-min Rain = 0
KSE2 031710Z 23013KT 18/M00 A3005 RMK A01 T01811002  RH  029%=      5-min Rain = 0
KSE2 031711Z 24011KT 18/M00 A3005 RMK A01 T01791003  RH  029%=      5-min Rain = 0
KSE2 031712Z 23008KT 18/M00 A3005 RMK A01 T01791002  RH  029%=      5-min Rain = 0
KSE2 031713Z 23011KT 18/M00 A3005 RMK A01 T01811001  RH  029%=      5-min Rain = 0
KSE2 031714Z 22009KT 18/M00 A3005 RMK A01 T01801002  RH  029%=      5-min Rain = 0
KSE2 031715Z 22010G15KT 18/00 A3005 RMK A01 T01820002  RH  030%=      5-min Rain = 0
KSE2 031716Z 22013KT 18/00 A3005 RMK A01 T01840000  RH  029%=      5-min Rain = 0
KSE2 031717Z 23013KT 18/M00 A3005 RMK A01 T01821002  RH  029%=      5-min Rain = 0
KSE2 031718Z 23011KT 18/M00 A3005 RMK A01 T01811001  RH  029%=      5-min Rain = 0
KSE2 031719Z 23011KT 18/00 A3005 RMK A01 T01830000  RH  029%=      5-min Rain = 0
KSE2 031720Z 24010G15KT 19/00 A3005 RMK A01 T01850001  RH  029%=      5-min Rain = 0
KSE2 031721Z 25009KT 19/00 A3005 RMK A01 T01850001  RH  029%=      5-min Rain = 0
KSE2 031722Z 25010KT 19/00 A3005 RMK A01 T01850000  RH  029%=      5-min Rain = 0
KSE2 031723Z 25008KT 19/00 A3005 RMK A01 T01850001  RH  029%=      5-min Rain = 0
KSE2 031724Z 23008KT 19/00 A3005 RMK A01 T01870003  RH  029%=      5-min Rain = 0
KSE2 031725Z 23009G14KT 19/00 A3005 RMK A01 T01890004  RH  029%=      5-min Rain = 0
KSE2 031726Z 22011KT 19/00 A3005 RMK A01 T01900003  RH  028%=      5-min Rain = 0
KSE2 031727Z 23013KT 19/00 A3005 RMK A01 T01890001  RH  028%=      5-min Rain = 0
KSE2 031728Z 23012KT 19/00 A3005 RMK A01 T01870001  RH  029%=      5-min Rain = 0
KSE2 031729Z 23011KT 19/00 A3005 RMK A01 T01870001  RH  029%=      5-min Rain = 0
KSE2 031730Z 23012KT 19/00 A3005 RMK A01 T01870003  RH  029%=      5-min Rain = 0
KSE2 031731Z 23014KT 19/00 A3005 RMK A01 T01880002  RH  029%=      5-min Rain = 0
KSE2 031732Z 24011KT 19/00 A3005 RMK A01 T01860001  RH  029%=      5-min Rain = 0
KSE2 031733Z 24009KT 18/00 A3005 RMK A01 T01840002  RH  029%=      5-min Rain = 0
KSE2 031734Z 24009KT 19/00 A3005 RMK A01 T01860003  RH  029%=      5-min Rain = 0
KSE2 031735Z 24013KT 19/00 A3005 RMK A01 T01870003  RH  029%=      5-min Rain = 0
KSE2 031736Z 24011KT 19/00 A3005 RMK A01 T01870003  RH  029%=      5-min Rain = 0
KSE2 031737Z 24010KT 19/00 A3005 RMK A01 T01880004  RH  029%=      5-min Rain = 0
KSE2 031738Z 23013KT 19/00 A3005 RMK A01 T01880003  RH  029%=      5-min Rain = 0
KSE2 031739Z 23011KT 19/00 A3005 RMK A01 T01870004  RH  029%=      5-min Rain = 0
KSE2 031740Z 23008KT 19/00 A3004 RMK A01 T01860003  RH  029%=      5-min Rain = 0
KSE2 031741Z 23009KT 19/01 A3004 RMK A01 T01870006  RH  030%=      5-min Rain = 0
KSE2 031742Z 22009KT 19/01 A3004 RMK A01 T01900008  RH  029%=      5-min Rain = 0
KSE2 031743Z 25010KT 19/01 A3004 RMK A01 T01910007  RH  029%=      5-min Rain = 0
KSE2 031744Z 23014KT 19/01 A3004 RMK A01 T01920007  RH  029%=      5-min Rain = 0
KSE2 031745Z 24013KT 19/01 A3004 RMK A01 T01920006  RH  029%=      5-min Rain = 0
KSE2 031746Z 24013KT 19/01 A3004 RMK A01 T01930006  RH  029%=      5-min Rain = 0
KSE2 031747Z 24012KT 19/01 A3004 RMK A01 T01920005  RH  029%=      5-min Rain = 0
KSE2 031748Z 23010G15KT 19/01 A3003 RMK A01 T01910007  RH  029%=      5-min Rain = 0
KSE2 031749Z 24016KT 19/01 A3003 RMK A01 T01940007  RH  029%=      5-min Rain = 0
KSE2 031750Z 24013KT 19/01 A3003 RMK A01 T01920005  RH  028%=      5-min Rain = 0
KSE2 031751Z 25009G14KT 19/01 A3003 RMK A01 T01920008  RH  029%=      5-min Rain = 0
KSE2 031752Z 24012KT 20/01 A3003 RMK A01 T01950009  RH  029%=      5-min Rain = 0
KSE2 031753Z 24010KT 20/01 A3003 RMK A01 T01970008  RH  028%=      5-min Rain = 0
KSE2 031754Z 25010KT 20/01 A3003 RMK A01 T01960008  RH  028%=      5-min Rain = 0
KSE2 031755Z 25011KT 20/01 A3003 RMK A01 T01970008  RH  028%=      5-min Rain = 0
KSE2 031756Z 24014KT 20/01 A3003 RMK A01 T01970008  RH  028%=      5-min Rain = 0
KSE2 031757Z 24013KT 20/01 A3003 RMK A01 T01950006  RH  028%=      5-min Rain = 0
KSE2 031758Z 24012KT 19/01 A3003 RMK A01 T01930008  RH  029%=      5-min Rain = 0
KSE2 031759Z 24011KT 20/01 A3003 RMK A01 T01960010  RH  029%=      5-min Rain = 0
KSE2 031800Z 24011G16KT 20/01 A3003 RMK A01 T01960009  RH  029%=      5-min Rain = 0
KSE2 031801Z 26012KT 20/01 A3003 RMK A01 T01960009  RH  029%=      5-min Rain = 0
KSE2 031802Z 24013KT 20/01 A3003 RMK A01 T01950010  RH  029%=      5-min Rain = 0
KSE2 031803Z 23014KT 20/01 A3003 RMK A01 T01960010  RH  029%=      5-min Rain = 0
KSE2 031804Z 23016KT 20/01 A3003 RMK A01 T01960010  RH  029%=      5-min Rain = 0
KSE2 031805Z 23011KT 19/01 A3003 RMK A01 T01940009  RH  029%=      5-min Rain = 0
KSE2 031806Z 23008KT 19/01 A3003 RMK A01 T01940009  RH  029%=      5-min Rain = 0
KSE2 031807Z 23009KT 19/01 A3003 RMK A01 T01940010  RH  029%=      5-min Rain = 0
KSE2 031808Z 24012KT 20/01 A3003 RMK A01 T01970012  RH  029%=      5-min Rain = 0
KSE2 031809Z 25011KT 20/01 A3002 RMK A01 T01980012  RH  029%=      5-min Rain = 0
KSE2 031810Z 24011KT 20/01 A3002 RMK A01 T01980011  RH  029%=      5-min Rain = 0
KSE2 031811Z 23011KT 20/01 A3002 RMK A01 T01980012  RH  029%=      5-min Rain = 0
KSE2 031812Z 24012KT 20/01 A3002 RMK A01 T02000013  RH  029%=      5-min Rain = 0
KSE2 031813Z 24011KT 20/01 A3002 RMK A01 T02010013  RH  029%=      5-min Rain = 0
KSE2 031814Z 24012KT 20/01 A3002 RMK A01 T02010012  RH  028%=      5-min Rain = 0
KSE2 031815Z 25011KT 20/01 A3002 RMK A01 T01990013  RH  029%=      5-min Rain = 0
KSE2 031816Z 26013KT 20/01 A3002 RMK A01 T02000013  RH  029%=      5-min Rain = 0
KSE2 031817Z 26010KT 20/01 A3002 RMK A01 T02000014  RH  029%=      5-min Rain = 0
KSE2 031818Z 23010KT 20/02 A3002 RMK A01 T02020016  RH  029%=      5-min Rain = 0
KSE2 031819Z 26009G16KT 21/02 A3002 RMK A01 T02050017  RH  029%=      5-min Rain = 0
KSE2 031820Z 26013KT 21/02 A3002 RMK A01 T02060016  RH  028%=      5-min Rain = 0
KSE2 031821Z 25012KT 21/02 A3002 RMK A01 T02060015  RH  028%=      5-min Rain = 0
KSE2 031822Z 25012KT 20/02 A3002 RMK A01 T02040015  RH  028%=      5-min Rain = 0
KSE2 031823Z 24008KT 20/02 A3002 RMK A01 T02030016  RH  029%=      5-min Rain = 0
KSE2 031824Z 25010G16KT 20/02 A3002 RMK A01 T02030017  RH  029%=      5-min Rain = 0
KSE2 031825Z 23011KT 20/02 A3002 RMK A01 T02040017  RH  029%=      5-min Rain = 0
KSE2 031826Z 23010KT 20/02 A3001 RMK A01 T02040017  RH  029%=      5-min Rain = 0
KSE2 031827Z 22009KT 21/02 A3001 RMK A01 T02050019  RH  029%=      5-min Rain = 0
KSE2 031828Z 22009KT 21/02 A3001 RMK A01 T02060019  RH  029%=      5-min Rain = 0
KSE2 031829Z 24011KT 21/02 A3001 RMK A01 T02090021  RH  029%=      5-min Rain = 0
KSE2 031830Z 24012KT 21/02 A3001 RMK A01 T02100019  RH  028%=      5-min Rain = 0
KSE2 031831Z 25011KT 21/02 A3001 RMK A01 T02080017  RH  028%=      5-min Rain = 0
KSE2 031832Z 25009KT 21/02 A3001 RMK A01 T02060017  RH  029%=      5-min Rain = 0
KSE2 031833Z 24013KT 21/02 A3001 RMK A01 T02060020  RH  029%=      5-min Rain = 0
KSE2 031834Z 22010KT 21/02 A30 RMK A01 T02080021  RH  029%=      5-min Rain = 0
KSE2 031835Z 22010KT 21/02 A30 RMK A01 T02090020  RH  029%=      5-min Rain = 0
KSE2 031836Z 23010KT 21/02 A30 RMK A01 T02100021  RH  029%=      5-min Rain = 0
KSE2 031837Z 22010KT 21/02 A30 RMK A01 T02090019  RH  028%=      5-min Rain = 0
KSE2 031838Z 22011KT 21/02 A30 RMK A01 T02100021  RH  029%=      5-min Rain = 0
KSE2 031839Z 22011KT 21/02 A30 RMK A01 T02110019  RH  028%=      5-min Rain = 0
KSE2 031840Z 24010KT 21/02 A30 RMK A01 T02110018  RH  028%=      5-min Rain = 0
KSE2 031841Z 23009KT 21/02 A30 RMK A01 T02110019  RH  028%=      5-min Rain = 0
KSE2 031842Z 25008KT 21/02 A30 RMK A01 T02120020  RH  028%=      5-min Rain = 0
KSE2 031843Z 25009KT 21/02 A30 RMK A01 T02140019  RH  027%=      5-min Rain = 0
KSE2 031844Z 23009KT 21/02 A30 RMK A01 T02140018  RH  027%=      5-min Rain = 0
KSE2 031845Z 24011KT 21/02 A2999 RMK A01 T02140020  RH  028%=      5-min Rain = 0
KSE2 031846Z 24013KT 22/02 A2999 RMK A01 T02150017  RH  027%=      5-min Rain = 0
KSE2 031847Z 26010KT 21/01 A2999 RMK A01 T02130014  RH  027%=      5-min Rain = 0
KSE2 031848Z 25007KT 21/02 A2999 RMK A01 T02120018  RH  028%=      5-min Rain = 0
KSE2 031849Z 24008KT 22/02 A2999 RMK A01 T02150018  RH  027%=      5-min Rain = 0
KSE2 031850Z 25007G12KT 22/02 A2999 RMK A01 T02150018  RH  027%=      5-min Rain = 0
KSE2 031851Z 25009KT 22/02 A2999 RMK A01 T02150018  RH  027%=      5-min Rain = 0
KSE2 031852Z 24010KT 22/02 A2999 RMK A01 T02150019  RH  027%=      5-min Rain = 0
KSE2 031853Z 24007KT 22/02 A2999 RMK A01 T02160017  RH  027%=      5-min Rain = 0
KSE2 031854Z 25009KT 22/02 A2999 RMK A01 T02160018  RH  027%=      5-min Rain = 0
KSE2 031855Z 25008G13KT 22/02 A2999 RMK A01 T02160017  RH  027%=      5-min Rain = 0
KSE2 031856Z 25009KT 22/02 A2999 RMK A01 T02170016  RH  026%=      5-min Rain = 0
KSE2 031857Z 23010KT 22/02 A2999 RMK A01 T02170017  RH  027%=      5-min Rain = 0
KSE2 031858Z 23009KT 22/02 A2999 RMK A01 T02170017  RH  027%=      5-min Rain = 0
KSE2 031859Z 24008KT 22/02 A2999 RMK A01 T02180019  RH  027%=      5-min Rain = 0
KSE2 031900Z 25011KT 22/02 A2999 RMK A01 T02190016  RH  026%=      5-min Rain = 0
KSE2 031901Z 25009KT 22/01 A2999 RMK A01 T02180014  RH  026%=      5-min Rain = 0
KSE2 031902Z 25010KT 22/01 A2999 RMK A01 T02190012  RH  026%=      5-min Rain = 0
KSE2 031903Z 25009KT 22/01 A2999 RMK A01 T02200012  RH  025%=      5-min Rain = 0
KSE2 031904Z 23010KT 22/01 A2999 RMK A01 T02200012  RH  025%=      5-min Rain = 0
KSE2 031905Z 25011KT 22/01 A2999 RMK A01 T02210011  RH  025%=      5-min Rain = 0
KSE2 031906Z 27011KT 22/01 A2999 RMK A01 T02220009  RH  024%=      5-min Rain = 0
KSE2 031907Z 27009KT 22/01 A2999 RMK A01 T02200008  RH  024%=      5-min Rain = 0
KSE2 031908Z 26013KT 22/01 A2999 RMK A01 T02190009  RH  025%=      5-min Rain = 0
KSE2 031909Z 26011KT 22/01 A2999 RMK A01 T02180009  RH  025%=      5-min Rain = 0
KSE2 031910Z 24009KT 22/01 A2999 RMK A01 T02180011  RH  025%=      5-min Rain = 0
KSE2 031911Z 26008KT 22/01 A2998 RMK A01 T02190011  RH  025%=      5-min Rain = 0
KSE2 031912Z 25008KT 22/01 A2998 RMK A01 T02200012  RH  025%=      5-min Rain = 0
KSE2 031913Z 25010G16KT 22/01 A2998 RMK A01 T02210012  RH  025%=      5-min Rain = 0
KSE2 031914Z 25011KT 22/01 A2998 RMK A01 T02230011  RH  025%=      5-min Rain = 0
KSE2 031915Z 25011KT 22/01 A2998 RMK A01 T02220010  RH  024%=      5-min Rain = 0
KSE2 031916Z 25009KT 22/01 A2998 RMK A01 T02240011  RH  024%=      5-min Rain = 0
KSE2 031917Z 25012KT 23/01 A2998 RMK A01 T02260009  RH  024%=      5-min Rain = 0
KSE2 031918Z 25009G14KT 22/01 A2998 RMK A01 T02230007  RH  024%=      5-min Rain = 0
KSE2 031919Z 24012KT 22/01 A2998 RMK A01 T02220007  RH  024%=      5-min Rain = 0
KSE2 031920Z 24010KT 22/01 A2998 RMK A01 T02220007  RH  024%=      5-min Rain = 0
KSE2 031921Z 23009KT 22/01 A2998 RMK A01 T02230007  RH  024%=      5-min Rain = 0
KSE2 031922Z 25009KT 22/01 A2998 RMK A01 T02240009  RH  024%=      5-min Rain = 0
KSE2 031923Z 26013KT 23/01 A2998 RMK A01 T02270009  RH  024%=      5-min Rain = 0
KSE2 031924Z 25012KT 23/01 A2998 RMK A01 T02270006  RH  023%=      5-min Rain = 0
KSE2 031925Z 26011KT 23/01 A2998 RMK A01 T02260005  RH  023%=      5-min Rain = 0
KSE2 031926Z 25011KT 23/00 A2998 RMK A01 T02260004  RH  023%=      5-min Rain = 0
KSE2 031927Z 26013KT 23/01 A2998 RMK A01 T02260005  RH  023%=      5-min Rain = 0
KSE2 031928Z 26013KT 23/01 A2998 RMK A01 T02270005  RH  023%=      5-min Rain = 0
KSE2 031929Z 26012KT 23/00 A2998 RMK A01 T02260003  RH  023%=      5-min Rain = 0
KSE2 031930Z 27013KT 23/00 A2997 RMK A01 T02270002  RH  022%=      5-min Rain = 0
KSE2 031931Z 26014KT 23/00 A2998 RMK A01 T02270001  RH  022%=      5-min Rain = 0
KSE2 031932Z 25010KT 23/00 A2998 RMK A01 T022500-0  RH  022%=      5-min Rain = 0
KSE2 031933Z 27014KT 23/00 A2998 RMK A01 T02260001  RH  023%=      5-min Rain = 0
KSE2 031934Z 28010KT 23/00 A2998 RMK A01 T02260001  RH  022%=      5-min Rain = 0
KSE2 031935Z 26010KT 23/00 A2998 RMK A01 T02260002  RH  023%=      5-min Rain = 0
KSE2 031936Z 24009KT 23/00 A2998 RMK A01 T02260003  RH  023%=      5-min Rain = 0
KSE2 031937Z 25008KT 23/00 A2998 RMK A01 T02270004  RH  023%=      5-min Rain = 0
KSE2 031938Z 26010KT 23/00 A2998 RMK A01 T02280004  RH  023%=      5-min Rain = 0
KSE2 031939Z 26007KT 23/01 A2997 RMK A01 T02290005  RH  023%=      5-min Rain = 0
KSE2 031940Z 26010G16KT 23/01 A2998 RMK A01 T02310007  RH  023%=      5-min Rain = 0
KSE2 031941Z 27010G15KT 23/00 A2998 RMK A01 T02320002  RH  022%=      5-min Rain = 0
KSE2 031942Z 27011KT 23/00 A2998 RMK A01 T02280001  RH  022%=      5-min Rain = 0
KSE2 031943Z 26011G16KT 23/00 A2998 RMK A01 T02270003  RH  023%=      5-min Rain = 0
KSE2 031944Z 25013KT 23/00 A2997 RMK A01 T02260002  RH  023%=      5-min Rain = 0
KSE2 031945Z 25008KT 23/00 A2997 RMK A01 T02260003  RH  023%=      5-min Rain = 0
KSE2 031946Z 25008KT 23/01 A2997 RMK A01 T02290005  RH  023%=      5-min Rain = 0
KSE2 031947Z 26013KT 23/00 A2997 RMK A01 T02300004  RH  022%=      5-min Rain = 0
KSE2 031948Z 27013KT 23/00 A2997 RMK A01 T02290002  RH  022%=      5-min Rain = 0
KSE2 031949Z 26008KT 23/00 A2997 RMK A01 T02260001  RH  022%=      5-min Rain = 0
KSE2 031950Z 26009KT 23/00 A2997 RMK A01 T02260002  RH  023%=      5-min Rain = 0
KSE2 031951Z 27008KT 23/00 A2997 RMK A01 T02260003  RH  023%=      5-min Rain = 0
KSE2 031952Z 27010KT 23/00 A2997 RMK A01 T02270003  RH  023%=      5-min Rain = 0
KSE2 031953Z 25011KT 23/00 A2997 RMK A01 T02270002  RH  022%=      5-min Rain = 0
KSE2 031954Z 28010KT 23/00 A2996 RMK A01 T02270003  RH  023%=      5-min Rain = 0
KSE2 031955Z 27010KT 23/00 A2996 RMK A01 T02290003  RH  022%=      5-min Rain = 0
KSE2 031956Z 26012KT 23/00 A2996 RMK A01 T02290003  RH  022%=      5-min Rain = 0
KSE2 031957Z 27008KT 23/00 A2996 RMK A01 T02290002  RH  022%=      5-min Rain = 0
KSE2 031958Z 27010KT 23/00 A2996 RMK A01 T02310003  RH  022%=      5-min Rain = 0
KSE2 031959Z 26008KT 23/00 A2996 RMK A01 T02300002  RH  022%=      5-min Rain = 0
KSE2 032000Z 24008KT 23/00 A2996 RMK A01 T02300004  RH  023%=      5-min Rain = 0
KSE2 032001Z 24010KT 23/00 A2996 RMK A01 T02320004  RH  022%=      5-min Rain = 0
KSE2 032002Z 25010KT 23/00 A2996 RMK A01 T02320004  RH  022%=      5-min Rain = 0
KSE2 032003Z 25010KT 23/00 A2997 RMK A01 T02320004  RH  022%=      5-min Rain = 0
KSE2 032004Z 25007KT 23/00 A2997 RMK A01 T02310004  RH  022%=      5-min Rain = 0
KSE2 032005Z 23008KT 23/01 A2996 RMK A01 T02330005  RH  022%=      5-min Rain = 0
KSE2 032006Z 26006G11KT 24/01 A2996 RMK A01 T02350007  RH  022%=      5-min Rain = 0
KSE2 032007Z 27007KT 24/01 A2996 RMK A01 T02390007  RH  022%=      5-min Rain = 0
KSE2 032008Z 26008KT 24/01 A2996 RMK A01 T02410007  RH  021%=      5-min Rain = 0
KSE2 032009Z 26012KT 24/00 A2996 RMK A01 T02410003  RH  021%=      5-min Rain = 0
KSE2 032010Z 26010KT 24/M00 A2996 RMK A01 T02371001  RH  021%=      5-min Rain = 0
KSE2 032011Z 26008KT 23/M00 A2996 RMK A01 T02331001  RH  021%=      5-min Rain = 0
KSE2 032012Z 26010KT 23/00 A2996 RMK A01 T02320001  RH  022%=      5-min Rain = 0
KSE2 032013Z 25011KT 23/00 A2996 RMK A01 T02320001  RH  022%=      5-min Rain = 0
KSE2 032014Z 24008KT 23/M00 A2996 RMK A01 T02321001  RH  021%=      5-min Rain = 0
KSE2 032015Z 24008KT 23/00 A2996 RMK A01 T02320001  RH  022%=      5-min Rain = 0
KSE2 032016Z 26009KT 24/00 A2996 RMK A01 T02350003  RH  022%=      5-min Rain = 0
KSE2 032017Z 25008KT 24/00 A2996 RMK A01 T02360002  RH  021%=      5-min Rain = 0
KSE2 032018Z 24012KT 24/00 A2996 RMK A01 T02350002  RH  021%=      5-min Rain = 0
KSE2 032019Z 24012KT 24/00 A2996 RMK A01 T02350000  RH  021%=      5-min Rain = 0
KSE2 032020Z 26009G15KT 24/M00 A2996 RMK A01 T02351001  RH  021%=      5-min Rain = 0
KSE2 032021Z 24009KT 23/00 A2996 RMK A01 T02340001  RH  021%=      5-min Rain = 0
KSE2 032022Z 23009KT 24/00 A2996 RMK A01 T02370001  RH  021%=      5-min Rain = 0
KSE2 032023Z 24012KT 24/M00 A2995 RMK A01 T02381003  RH  020%=      5-min Rain = 0
KSE2 032024Z 25010KT 24/M01 A2995 RMK A01 T02391007  RH  020%=      5-min Rain = 0
KSE2 032025Z 27011KT 24/M01 A2995 RMK A01 T02401007  RH  019%=      5-min Rain = 0
KSE2 032026Z 26013KT 24/M01 A2996 RMK A01 T02401011  RH  019%=      5-min Rain = 0
KSE2 032027Z 27011KT 24/M01 A2996 RMK A01 T02391011  RH  019%=      5-min Rain = 0
KSE2 032028Z 29010G15KT 24/M01 A2996 RMK A01 T02391010  RH  019%=      5-min Rain = 0
KSE2 032029Z 29008KT 24/M01 A2996 RMK A01 T02391010  RH  019%=      5-min Rain = 0
KSE2 032030Z 29006KT 24/M01 A2996 RMK A01 T02401011  RH  019%=      5-min Rain = 0
KSE2 032031Z 29009KT 24/M01 A2996 RMK A01 T02401008  RH  019%=      5-min Rain = 0
KSE2 032032Z 25007KT 24/M01 A2996 RMK A01 T02411007  RH  019%=      5-min Rain = 0
KSE2 032033Z 25006KT 24/M01 A2996 RMK A01 T02421007  RH  019%=      5-min Rain = 0
KSE2 032034Z 26006KT 24/M01 A2996 RMK A01 T02421006  RH  019%=      5-min Rain = 0
KSE2 032035Z 25007KT 24/M01 A2996 RMK A01 T02431006  RH  019%=      5-min Rain = 0
KSE2 032036Z 26010KT 24/M01 A2995 RMK A01 T02441008  RH  019%=      5-min Rain = 0
KSE2 032037Z 25010KT 24/M01 A2995 RMK A01 T02421008  RH  019%=      5-min Rain = 0
KSE2 032038Z 25008KT 24/M01 A2995 RMK A01 T02411009  RH  019%=      5-min Rain = 0
KSE2 032039Z 27009KT 24/M01 A2995 RMK A01 T02401007  RH  019%=      5-min Rain = 0
KSE2 032040Z 26012KT 24/M01 A2995 RMK A01 T02411010  RH  019%=      5-min Rain = 0
KSE2 032041Z 25009KT 24/M01 A2995 RMK A01 T02411010  RH  019%=      5-min Rain = 0
KSE2 032042Z 25007KT 24/M01 A2995 RMK A01 T02401010  RH  019%=      5-min Rain = 0
KSE2 032043Z 26009KT 24/M01 A2995 RMK A01 T02421009  RH  019%=      5-min Rain = 0
KSE2 032044Z 26006KT 24/M01 A2995 RMK A01 T02431007  RH  019%=      5-min Rain = 0
KSE2 032045Z 28010KT 25/M01 A2996 RMK A01 T02451007  RH  019%=      5-min Rain = 0
KSE2 032046Z 28011KT 24/M01 A2996 RMK A01 T02431008  RH  019%=      5-min Rain = 0
KSE2 032047Z 28009KT 24/M01 A2995 RMK A01 T02401009  RH  019%=      5-min Rain = 0
KSE2 032048Z 25008KT 24/M01 A2995 RMK A01 T02391009  RH  019%=      5-min Rain = 0
KSE2 032049Z 26007KT 24/M01 A2995 RMK A01 T02421006  RH  019%=      5-min Rain = 0
KSE2 032050Z 27007KT 24/M01 A2995 RMK A01 T02441006  RH  019%=      5-min Rain = 0
KSE2 032051Z 28005KT 25/M01 A2995 RMK A01 T02451008  RH  019%=      5-min Rain = 0
KSE2 032052Z 27005G13KT 24/M01 A2995 RMK A01 T02431006  RH  019%=      5-min Rain = 0
KSE2 032053Z 25008KT 24/M01 A2995 RMK A01 T02441009  RH  019%=      5-min Rain = 0
KSE2 032054Z 24011G18KT 25/M01 A2995 RMK A01 T02451010  RH  019%=      5-min Rain = 0
KSE2 032055Z 25013KT 25/M01 A2995 RMK A01 T02451009  RH  019%=      5-min Rain = 0
KSE2 032056Z 25009KT 24/M01 A2995 RMK A01 T02441009  RH  019%=      5-min Rain = 0
KSE2 032057Z 25009KT 24/M01 A2995 RMK A01 T02411011  RH  019%=      5-min Rain = 0
KSE2 032058Z 25009KT 24/M01 A2995 RMK A01 T02401011  RH  019%=      5-min Rain = 0
KSE2 032059Z 25011KT 24/M01 A2995 RMK A01 T02411012  RH  019%=      5-min Rain = 0
KSE2 032100Z 24012KT 24/M01 A2995 RMK A01 T02401013  RH  019%=      5-min Rain = 0
KSE2 032101Z 26011KT 24/M01 A2995 RMK A01 T02411013  RH  019%=      5-min Rain = 0
KSE2 032102Z 27009KT 24/M01 A2995 RMK A01 T02431011  RH  019%=      5-min Rain = 0
KSE2 032103Z 26009KT 24/M01 A2995 RMK A01 T02441010  RH  019%=      5-min Rain = 0
KSE2 032104Z 27007KT 24/M01 A2995 RMK A01 T02441009  RH  019%=      5-min Rain = 0
KSE2 032105Z 27008KT 25/M01 A2995 RMK A01 T02451009  RH  019%=      5-min Rain = 0
KSE2 032106Z 25005G10KT 25/M01 A2995 RMK A01 T02451009  RH  019%=      5-min Rain = 0
KSE2 032107Z 25009KT 25/M01 A2995 RMK A01 T02471011  RH  018%=      5-min Rain = 0
KSE2 032108Z 25008KT 25/M01 A2995 RMK A01 T02471012  RH  018%=      5-min Rain = 0
KSE2 032109Z 25008KT 25/M01 A2995 RMK A01 T02471012  RH  018%=      5-min Rain = 0
KSE2 032110Z 25010KT 25/M02 A2995 RMK A01 T02471015  RH  018%=      5-min Rain = 0
KSE2 032111Z 26011KT 24/M02 A2995 RMK A01 T02441017  RH  018%=      5-min Rain = 0
KSE2 032112Z 25012KT 24/M02 A2995 RMK A01 T02431016  RH  018%=      5-min Rain = 0
KSE2 032113Z 26010KT 24/M02 A2995 RMK A01 T02431019  RH  018%=      5-min Rain = 0
KSE2 032114Z 25011KT 24/M02 A2995 RMK A01 T02431019  RH  018%=      5-min Rain = 0
KSE2 032115Z 25010KT 24/M02 A2995 RMK A01 T02431019  RH  018%=      5-min Rain = 0
KSE2 032116Z 27010KT 24/M02 A2995 RMK A01 T02421017  RH  018%=      5-min Rain = 0
KSE2 032117Z 26008KT 24/M02 A2994 RMK A01 T02421015  RH  018%=      5-min Rain = 0
KSE2 032118Z 24010KT 24/M02 A2994 RMK A01 T02411015  RH  018%=      5-min Rain = 0
KSE2 032119Z 26009KT 24/M02 A2994 RMK A01 T02411016  RH  018%=      5-min Rain = 0
KSE2 032120Z 25006KT 24/M01 A2994 RMK A01 T02401014  RH  018%=      5-min Rain = 0
KSE2 032121Z 26009KT 24/M01 A2995 RMK A01 T02421013  RH  018%=      5-min Rain = 0
KSE2 032122Z 26011KT 24/M02 A2995 RMK A01 T02431015  RH  018%=      5-min Rain = 0
KSE2 032123Z 26010KT 24/M02 A2995 RMK A01 T02411017  RH  018%=      5-min Rain = 0
KSE2 032124Z 27010KT 24/M02 A2995 RMK A01 T02411016  RH  018%=      5-min Rain = 0
KSE2 032125Z 28008KT 24/M02 A2995 RMK A01 T02401015  RH  018%=      5-min Rain = 0
KSE2 032126Z 26007KT 24/M01 A2995 RMK A01 T02411013  RH  019%=      5-min Rain = 0
KSE2 032127Z 25012KT 24/M01 A2995 RMK A01 T02431012  RH  018%=      5-min Rain = 0
KSE2 032128Z 25012KT 24/M01 A2995 RMK A01 T02421014  RH  018%=      5-min Rain = 0
KSE2 032129Z 25012KT 24/M01 A2995 RMK A01 T02411014  RH  018%=      5-min Rain = 0
KSE2 032130Z 26010KT 24/M01 A2995 RMK A01 T02391014  RH  019%=      5-min Rain = 0
KSE2 032131Z 27008KT 24/M01 A2995 RMK A01 T02401011  RH  019%=      5-min Rain = 0
KSE2 032132Z 27008KT 24/M01 A2995 RMK A01 T02411011  RH  019%=      5-min Rain = 0
KSE2 032133Z 26010KT 24/M01 A2995 RMK A01 T02421012  RH  019%=      5-min Rain = 0
KSE2 032134Z 26007KT 24/M01 A2995 RMK A01 T02421012  RH  018%=      5-min Rain = 0
KSE2 032135Z 27008KT 24/M01 A2995 RMK A01 T02421012  RH  018%=      5-min Rain = 0
KSE2 032136Z 26011G16KT 24/M01 A2995 RMK A01 T02431011  RH  019%=      5-min Rain = 0
KSE2 032137Z 26010KT 24/M01 A2995 RMK A01 T02431013  RH  018%=      5-min Rain = 0
KSE2 032138Z 26010KT 24/M01 A2995 RMK A01 T02431013  RH  018%=      5-min Rain = 0
KSE2 032139Z 27008KT 24/M01 A2995 RMK A01 T02421012  RH  018%=      5-min Rain = 0
KSE2 032140Z 28008KT 24/M01 A2995 RMK A01 T02421012  RH  019%=      5-min Rain = 0
KSE2 032141Z 26010KT 24/M01 A2995 RMK A01 T02421013  RH  018%=      5-min Rain = 0
KSE2 032142Z 26011KT 24/M01 A2995 RMK A01 T02421014  RH  018%=      5-min Rain = 0
KSE2 032143Z 27009KT 24/M02 A2995 RMK A01 T02421016  RH  018%=      5-min Rain = 0
KSE2 032144Z 28011KT 24/M02 A2995 RMK A01 T02421015  RH  018%=      5-min Rain = 0
KSE2 032145Z 27010KT 24/M02 A2996 RMK A01 T02421015  RH  018%=      5-min Rain = 0
KSE2 032146Z 27012KT 24/M02 A2996 RMK A01 T02421017  RH  018%=      5-min Rain = 0
KSE2 032147Z 28012KT 24/M02 A2996 RMK A01 T02421022  RH  017%=      5-min Rain = 0
KSE2 032148Z 29010G16KT 24/M02 A2996 RMK A01 T02411023  RH  017%=      5-min Rain = 0
KSE2 032149Z 29009KT 24/M02 A2996 RMK A01 T02421022  RH  017%=      5-min Rain = 0
KSE2 032150Z 29010KT 24/M02 A2996 RMK A01 T02421021  RH  017%=      5-min Rain = 0
KSE2 032151Z 28011KT 24/M02 A2996 RMK A01 T02421022  RH  017%=      5-min Rain = 0
KSE2 032152Z 29007KT 24/M02 A2996 RMK A01 T02421022  RH  017%=      5-min Rain = 0
KSE2 032153Z 29012KT 24/M02 A2996 RMK A01 T02431023  RH  017%=      5-min Rain = 0
KSE2 032154Z 29009KT 24/M02 A2996 RMK A01 T02421024  RH  017%=      5-min Rain = 0
KSE2 032155Z 28009KT 24/M02 A2996 RMK A01 T02421022  RH  017%=      5-min Rain = 0
KSE2 032156Z 29008G13KT 24/M02 A2996 RMK A01 T02421021  RH  017%=      5-min Rain = 0
KSE2 032157Z 29009G14KT 24/M02 A2996 RMK A01 T02421021  RH  017%=      5-min Rain = 0
KSE2 032158Z 28010KT 24/M02 A2996 RMK A01 T02421021  RH  017%=      5-min Rain = 0
KSE2 032159Z 28013KT 24/M02 A2996 RMK A01 T02421021  RH  017%=      5-min Rain = 0
KSE2 032200Z 29010KT 24/M02 A2996 RMK A01 T02411021  RH  017%=      5-min Rain = 0
KSE2 032201Z 29009KT 24/M02 A2996 RMK A01 T02411020  RH  018%=      5-min Rain = 0
KSE2 032202Z 30008KT 24/M02 A2996 RMK A01 T02401020  RH  018%=      5-min Rain = 0
KSE2 032203Z 29011KT 24/M02 A2996 RMK A01 T02411018  RH  018%=      5-min Rain = 0
KSE2 032204Z 29009KT 24/M02 A2996 RMK A01 T02411020  RH  018%=      5-min Rain = 0
KSE2 032205Z 29011KT 24/M02 A2996 RMK A01 T02401021  RH  018%=      5-min Rain = 0
KSE2 032206Z 29009G14KT 24/M02 A2996 RMK A01 T02401020  RH  018%=      5-min Rain = 0
KSE2 032207Z 28009KT 24/M02 A2996 RMK A01 T02401018  RH  018%=      5-min Rain = 0
KSE2 032208Z 29007KT 24/M02 A2996 RMK A01 T02401018  RH  018%=      5-min Rain = 0
KSE2 032209Z 27008KT 24/M02 A2996 RMK A01 T02411017  RH  018%=      5-min Rain = 0
KSE2 032210Z 29008KT 24/M02 A2996 RMK A01 T02411017  RH  018%=      5-min Rain = 0
KSE2 032211Z 27006KT 24/M02 A2996 RMK A01 T02411018  RH  018%=      5-min Rain = 0
KSE2 032212Z 27006KT 24/M02 A2996 RMK A01 T02411018  RH  018%=      5-min Rain = 0
KSE2 032213Z 29006G12KT 24/M02 A2996 RMK A01 T02411018  RH  018%=      5-min Rain = 0
KSE2 032214Z 29009KT 24/M02 A2996 RMK A01 T02421018  RH  018%=      5-min Rain = 0
KSE2 032215Z 28009KT 24/M02 A2996 RMK A01 T02401020  RH  018%=      5-min Rain = 0
KSE2 032216Z 29008KT 24/M02 A2996 RMK A01 T02391019  RH  018%=      5-min Rain = 0
KSE2 032217Z 29010KT 24/M02 A2996 RMK A01 T02391019  RH  018%=      5-min Rain = 0
KSE2 032218Z 29008KT 24/M02 A2996 RMK A01 T02381019  RH  018%=      5-min Rain = 0
KSE2 032219Z 29011KT 24/M02 A2996 RMK A01 T02381018  RH  018%=      5-min Rain = 0
KSE2 032220Z 30008G13KT 24/M02 A2996 RMK A01 T02371018  RH  018%=      5-min Rain = 0
KSE2 032221Z 29008KT 24/M02 A2996 RMK A01 T02371016  RH  018%=      5-min Rain = 0
KSE2 032222Z 29010KT 24/M02 A2996 RMK A01 T02371017  RH  018%=      5-min Rain = 0
KSE2 032223Z 29009KT 24/M02 A2996 RMK A01 T02371018  RH  018%=      5-min Rain = 0
KSE2 032224Z 30009KT 24/M02 A2996 RMK A01 T02361018  RH  018%=      5-min Rain = 0
KSE2 032225Z 30009KT 24/M02 A2996 RMK A01 T02361017  RH  018%=      5-min Rain = 0
KSE2 032226Z 30007KT 24/M02 A2996 RMK A01 T02361017  RH  019%=      5-min Rain = 0
KSE2 032227Z 29006KT 24/M02 A2996 RMK A01 T02361016  RH  019%=      5-min Rain = 0
KSE2 032228Z 29006KT 24/M02 A2996 RMK A01 T02361015  RH  019%=      5-min Rain = 0
KSE2 032229Z 30009KT 24/M02 A2996 RMK A01 T02361015  RH  019%=      5-min Rain = 0
KSE2 032230Z 29009KT 24/M02 A2996 RMK A01 T02361016  RH  019%=      5-min Rain = 0
KSE2 032231Z 29007KT 24/M02 A2996 RMK A01 T02351015  RH  019%=      5-min Rain = 0
KSE2 032232Z 29006KT 24/M01 A2996 RMK A01 T02351013  RH  019%=      5-min Rain = 0
KSE2 032233Z 28006KT 24/M01 A2996 RMK A01 T02351012  RH  019%=      5-min Rain = 0
KSE2 032234Z 29008KT 24/M01 A2996 RMK A01 T02361014  RH  019%=      5-min Rain = 0
KSE2 032235Z 28010KT 24/M01 A2996 RMK A01 T02351014  RH  019%=      5-min Rain = 0
KSE2 032236Z 28008KT 24/M02 A2996 RMK A01 T02351015  RH  019%=      5-min Rain = 0
KSE2 032237Z 28005KT 23/M01 A2996 RMK A01 T02341013  RH  019%=      5-min Rain = 0
KSE2 032238Z 28008KT 24/M01 A2997 RMK A01 T02351013  RH  019%=      5-min Rain = 0
KSE2 032239Z 28006KT 23/M01 A2997 RMK A01 T02341013  RH  019%=      5-min Rain = 0
KSE2 032240Z 26006KT 23/M01 A2997 RMK A01 T02341013  RH  019%=      5-min Rain = 0
KSE2 032241Z 29005KT 23/M01 A2997 RMK A01 T02341013  RH  019%=      5-min Rain = 0
KSE2 032242Z 28005KT 23/M01 A2997 RMK A01 T02341012  RH  019%=      5-min Rain = 0
KSE2 032243Z 28006KT 23/M01 A2997 RMK A01 T02341012  RH  019%=      5-min Rain = 0
KSE2 032244Z 28007KT 23/M01 A2997 RMK A01 T02341012  RH  020%=      5-min Rain = 0
KSE2 032245Z 27008KT 23/M01 A2997 RMK A01 T02331013  RH  019%=      5-min Rain = 0
KSE2 032246Z 27007KT 23/M01 A2997 RMK A01 T02331014  RH  019%=      5-min Rain = 0
KSE2 032247Z 27007KT 23/M01 A2997 RMK A01 T02321013  RH  020%=      5-min Rain = 0
KSE2 032248Z 29005KT 23/M01 A2997 RMK A01 T02321013  RH  020%=      5-min Rain = 0
KSE2 032249Z 29007KT 23/M01 A2997 RMK A01 T02321012  RH  020%=      5-min Rain = 0
KSE2 032250Z 30008KT 23/M01 A2997 RMK A01 T02321012  RH  020%=      5-min Rain = 0
KSE2 032251Z 29006KT 23/M01 A2997 RMK A01 T02311012  RH  020%=      5-min Rain = 0
KSE2 032252Z 29007KT 23/M01 A2997 RMK A01 T02311011  RH  020%=      5-min Rain = 0
KSE2 032253Z 29008KT 23/M01 A2997 RMK A01 T02301012  RH  020%=      5-min Rain = 0
KSE2 032254Z 29007KT 23/M01 A2997 RMK A01 T02301012  RH  020%=      5-min Rain = 0
KSE2 032255Z 28006KT 23/M01 A2997 RMK A01 T02301012  RH  020%=      5-min Rain = 0
KSE2 032256Z 29005KT 23/M01 A2997 RMK A01 T02291013  RH  020%=      5-min Rain = 0
KSE2 032257Z 29005KT 23/M01 A2997 RMK A01 T02301011  RH  020%=      5-min Rain = 0
KSE2 032258Z 29006KT 23/M01 A2997 RMK A01 T02291011  RH  020%=      5-min Rain = 0
KSE2 032259Z 29004KT 23/M01 A2997 RMK A01 T02291010  RH  020%=      5-min Rain = 0
KSE2 032300Z 28004KT 23/M01 A2997 RMK A01 T02291010  RH  020%=      5-min Rain = 0
KSE2 032301Z 28005KT 23/M01 A2997 RMK A01 T02281010  RH  020%=      5-min Rain = 0
KSE2 032302Z 29005KT 23/M01 A2996 RMK A01 T02281010  RH  020%=      5-min Rain = 0
KSE2 032303Z 29004KT 23/M01 A2996 RMK A01 T02281009  RH  021%=      5-min Rain = 0
KSE2 032304Z 29004KT 23/M01 A2996 RMK A01 T02271009  RH  021%=      5-min Rain = 0
KSE2 032305Z 28005KT 23/M01 A2996 RMK A01 T02261010  RH  021%=      5-min Rain = 0
KSE2 032306Z 29006KT 23/M01 A2996 RMK A01 T02261011  RH  021%=      5-min Rain = 0
KSE2 032307Z 29006KT 23/M01 A2996 RMK A01 T02261011  RH  021%=      5-min Rain = 0
KSE2 032308Z 29005KT 23/M01 A2996 RMK A01 T02251010  RH  021%=      5-min Rain = 0
KSE2 032309Z 29005KT 23/M01 A2996 RMK A01 T02251010  RH  021%=      5-min Rain = 0
KSE2 032310Z 28005KT 23/M01 A2996 RMK A01 T02251010  RH  021%=      5-min Rain = 0
KSE2 032311Z 29004KT 22/M01 A2996 RMK A01 T02241010  RH  021%=      5-min Rain = 0
KSE2 032312Z 28004KT 22/M01 A2996 RMK A01 T02241009  RH  021%=      5-min Rain = 0
KSE2 032313Z 28003KT 22/M01 A2996 RMK A01 T02231009  RH  021%=      5-min Rain = 0
KSE2 032314Z 27003KT 22/M01 A2996 RMK A01 T02221008  RH  021%=      5-min Rain = 0
KSE2 032315Z 28003KT 22/M01 A2996 RMK A01 T02221008  RH  022%=      5-min Rain = 0
KSE2 032316Z 27003KT 22/M01 A2996 RMK A01 T02211008  RH  022%=      5-min Rain = 0
KSE2 032317Z 28004KT 22/M01 A2996 RMK A01 T02211008  RH  022%=      5-min Rain = 0
KSE2 032318Z 27004KT 22/M01 A2996 RMK A01 T02201008  RH  022%=      5-min Rain = 0
KSE2 032319Z 27004KT 22/M01 A2996 RMK A01 T02201009  RH  022%=      5-min Rain = 0
KSE2 032320Z 26004KT 22/M01 A2996 RMK A01 T02191009  RH  022%=      5-min Rain = 0
KSE2 032321Z 27004KT 22/M01 A2996 RMK A01 T02181010  RH  022%=      5-min Rain = 0
KSE2 032322Z 27004KT 22/M01 A2996 RMK A01 T02171009  RH  022%=      5-min Rain = 0
KSE2 032323Z 26004KT 22/M01 A2996 RMK A01 T02161010  RH  022%=      5-min Rain = 0
KSE2 032324Z 27005KT 22/M01 A2996 RMK A01 T02151010  RH  022%=      5-min Rain = 0
KSE2 032325Z 27004KT 21/M01 A2996 RMK A01 T02141010  RH  022%=      5-min Rain = 0
KSE2 032326Z 26004KT 21/M01 A2996 RMK A01 T02131010  RH  023%=      5-min Rain = 0
KSE2 032327Z 26004KT 21/M01 A2996 RMK A01 T02111010  RH  023%=      5-min Rain = 0
KSE2 032328Z 27004KT 21/M01 A2996 RMK A01 T02101010  RH  023%=      5-min Rain = 0
KSE2 032329Z 26004KT 21/M01 A2996 RMK A01 T02091010  RH  023%=      5-min Rain = 0
KSE2 032330Z 26004KT 21/M01 A2996 RMK A01 T02091010  RH  023%=      5-min Rain = 0
KSE2 032331Z 27004KT 21/M01 A2996 RMK A01 T02081010  RH  023%=      5-min Rain = 0
KSE2 032332Z 27004KT 21/M01 A2996 RMK A01 T02081010  RH  023%=      5-min Rain = 0
KSE2 032333Z 27004KT 21/M01 A2996 RMK A01 T02071010  RH  023%=      5-min Rain = 0
KSE2 032334Z 26004KT 21/M01 A2996 RMK A01 T02071010  RH  023%=      5-min Rain = 0
KSE2 032335Z 26004KT 21/M01 A2996 RMK A01 T02071010  RH  023%=      5-min Rain = 0
KSE2 032336Z 26005KT 21/M01 A2996 RMK A01 T02061010  RH  023%=      5-min Rain = 0
KSE2 032337Z 26005KT 21/M01 A2997 RMK A01 T02061010  RH  023%=      5-min Rain = 0
KSE2 032338Z 26005KT 21/M01 A2997 RMK A01 T02051010  RH  024%=      5-min Rain = 0
KSE2 032339Z 26005KT 20/M01 A2997 RMK A01 T02041010  RH  024%=      5-min Rain = 0
KSE2 032340Z 26005KT 20/M01 A2997 RMK A01 T02021010  RH  024%=      5-min Rain = 0
KSE2 032341Z 27005KT 20/M01 A2997 RMK A01 T02021010  RH  024%=      5-min Rain = 0
KSE2 032342Z 27004KT 20/M01 A2997 RMK A01 T02011010  RH  024%=      5-min Rain = 0
KSE2 032343Z 26005KT 20/M01 A2997 RMK A01 T02001010  RH  024%=      5-min Rain = 0
KSE2 032344Z 26005KT 20/M01 A2997 RMK A01 T02001010  RH  024%=      5-min Rain = 0
KSE2 032345Z 27005KT 20/M01 A2997 RMK A01 T02001010  RH  024%=      5-min Rain = 0
KSE2 032346Z 27005KT 20/M01 A2997 RMK A01 T02001009  RH  024%=      5-min Rain = 0
KSE2 032347Z 27004KT 20/M01 A2998 RMK A01 T01991010  RH  024%=      5-min Rain = 0
KSE2 032348Z 27004KT 20/M01 A2998 RMK A01 T01991010  RH  025%=      5-min Rain = 0
KSE2 032349Z 27004KT 20/M01 A2998 RMK A01 T01991010  RH  025%=      5-min Rain = 0
KSE2 032350Z 27005KT 20/M01 A2998 RMK A01 T01981010  RH  025%=      5-min Rain = 0
KSE2 032351Z 26005KT 20/M01 A2998 RMK A01 T01981010  RH  025%=      5-min Rain = 0
KSE2 032352Z 27005KT 20/M01 A2998 RMK A01 T01971010  RH  025%=      5-min Rain = 0
KSE2 032353Z 26005KT 20/M01 A2998 RMK A01 T01961010  RH  025%=      5-min Rain = 0
KSE2 032354Z 26006KT 20/M01 A2998 RMK A01 T01951010  RH  025%=      5-min Rain = 0
KSE2 032355Z 27006KT 20/M01 A2998 RMK A01 T01951010  RH  025%=      5-min Rain = 0
KSE2 032356Z 27005KT 20/M01 A2998 RMK A01 T01951010  RH  025%=      5-min Rain = 0
KSE2 032357Z 27005KT 20/M01 A2998 RMK A01 T01951010  RH  025%=      5-min Rain = 0
KSE2 032358Z 27005KT 19/M01 A2998 RMK A01 T01941010  RH  025%=      5-min Rain = 0
KSE2 032359Z 28005KT 20/M01 A2998 RMK A01 T01951010  RH  025%=      5-min Rain = 0
KSE2 040000Z 28005KT 20/M01 A2998 RMK A01 T01951010  RH  025%=      5-min Rain = 0
KSE2 040001Z 28005KT 19/M01 A2998 RMK A01 T01941010  RH  025%=      5-min Rain = 0
KSE2 040002Z 28005KT 19/M01 A2998 RMK A01 T01941010  RH  025%=      5-min Rain = 0
KSE2 040003Z 28005KT 19/M01 A2998 RMK A01 T01941010  RH  025%=      5-min Rain = 0
KSE2 040004Z 28005KT 19/M01 A2998 RMK A01 T01941010  RH  025%=      5-min Rain = 0
KSE2 040005Z 28005KT 19/M01 A2998 RMK A01 T01931010  RH  025%=      5-min Rain = 0
KSE2 040006Z 28005KT 19/M01 A2998 RMK A01 T01931010  RH  025%=      5-min Rain = 0
KSE2 040007Z 28005KT 19/M01 A2998 RMK A01 T01931010  RH  025%=      5-min Rain = 0
KSE2 040008Z 27005KT 19/M01 A2998 RMK A01 T01931010  RH  025%=      5-min Rain = 0
KSE2 040009Z 27005KT 19/M01 A2998 RMK A01 T01931010  RH  025%=      5-min Rain = 0
KSE2 040010Z 28005KT 19/M01 A2999 RMK A01 T01931010  RH  025%=      5-min Rain = 0
KSE2 040011Z 28005KT 19/M01 A2999 RMK A01 T01931010  RH  025%=      5-min Rain = 0
KSE2 040012Z 28005KT 19/M01 A2999 RMK A01 T01931009  RH  026%=      5-min Rain = 0
KSE2 040013Z 28005KT 19/M01 A2999 RMK A01 T01931009  RH  026%=      5-min Rain = 0
KSE2 040014Z 27005KT 19/M01 A2999 RMK A01 T01921009  RH  026%=      5-min Rain = 0
KSE2 040015Z 26006KT 19/M01 A2999 RMK A01 T01911009  RH  026%=      5-min Rain = 0
KSE2 040016Z 26006KT 19/M01 A2999 RMK A01 T01911009  RH  026%=      5-min Rain = 0
KSE2 040017Z 27006KT 19/M01 A2999 RMK A01 T01901009  RH  026%=      5-min Rain = 0
KSE2 040018Z 27005KT 19/M01 A2999 RMK A01 T01901009  RH  026%=      5-min Rain = 0
KSE2 040019Z 26005KT 19/M01 A2999 RMK A01 T01901009  RH  026%=      5-min Rain = 0
KSE2 040020Z 26006KT 19/M01 A2999 RMK A01 T01901009  RH  026%=      5-min Rain = 0
KSE2 040021Z 27006KT 19/M01 A2999 RMK A01 T01901009  RH  026%=      5-min Rain = 0
KSE2 040022Z 27005KT 19/M01 A2999 RMK A01 T01901009  RH  026%=      5-min Rain = 0
KSE2 040023Z 26006KT 19/M01 A2999 RMK A01 T01891008  RH  026%=      5-min Rain = 0
KSE2 040024Z 26007KT 19/M01 A2999 RMK A01 T01891008  RH  026%=      5-min Rain = 0
KSE2 040025Z 26007KT 19/M01 A2999 RMK A01 T01881008  RH  027%=      5-min Rain = 0
KSE2 040026Z 26007KT 19/M01 A2999 RMK A01 T01881008  RH  027%=      5-min Rain = 0
KSE2 040027Z 26006KT 19/M01 A2999 RMK A01 T01871008  RH  027%=      5-min Rain = 0
KSE2 040028Z 27005KT 19/M01 A2999 RMK A01 T01871008  RH  027%=      5-min Rain = 0
KSE2 040029Z 28004KT 19/M01 A2999 RMK A01 T01861008  RH  027%=      5-min Rain = 0
KSE2 040030Z 29003KT 19/M01 A2999 RMK A01 T01851008  RH  027%=      5-min Rain = 0
KSE2 040031Z 31004KT 18/M01 A2999 RMK A01 T01831008  RH  027%=      5-min Rain = 0
KSE2 040032Z 30005KT 18/M01 A2999 RMK A01 T01801009  RH  028%=      5-min Rain = 0
KSE2 040033Z 30004KT 18/M01 A2999 RMK A01 T01781009  RH  028%=      5-min Rain = 0
KSE2 040034Z 29003KT 18/M01 A2999 RMK A01 T01761009  RH  029%=      5-min Rain = 0
KSE2 040035Z 29003KT 18/M01 A2999 RMK A01 T01751009  RH  029%=      5-min Rain = 0
KSE2 040036Z 28004KT 18/M01 A30 RMK A01 T01751008  RH  029%=      5-min Rain = 0
KSE2 040037Z 28004KT 18/M01 A30 RMK A01 T01751009  RH  029%=      5-min Rain = 0
KSE2 040038Z 28005KT 18/M01 A30 RMK A01 T01751008  RH  029%=      5-min Rain = 0
KSE2 040039Z 28004KT 18/M01 A30 RMK A01 T01751008  RH  029%=      5-min Rain = 0
KSE2 040040Z 28005KT 18/M01 A30 RMK A01 T01751009  RH  029%=      5-min Rain = 0
KSE2 040041Z 28005KT 18/M01 A30 RMK A01 T01751009  RH  029%=      5-min Rain = 0
KSE2 040042Z 28005KT 18/M01 A30 RMK A01 T01751009  RH  029%=      5-min Rain = 0
KSE2 040043Z 29005KT 18/M01 A30 RMK A01 T01761008  RH  029%=      5-min Rain = 0
KSE2 040044Z 28005KT 18/M01 A2999 RMK A01 T01771008  RH  029%=      5-min Rain = 0
KSE2 040045Z 29006KT 18/M01 A2999 RMK A01 T01771008  RH  029%=      5-min Rain = 0
KSE2 040046Z 29006KT 18/M01 A2999 RMK A01 T01771008  RH  029%=      5-min Rain = 0
KSE2 040047Z 29005KT 18/M01 A2999 RMK A01 T01771008  RH  028%=      5-min Rain = 0
KSE2 040048Z 29005KT 18/M01 A2999 RMK A01 T01781008  RH  028%=      5-min Rain = 0
KSE2 040049Z 29006KT 18/M01 A2999 RMK A01 T01781008  RH  028%=      5-min Rain = 0
KSE2 040050Z 30006KT 18/M01 A30 RMK A01 T01771008  RH  028%=      5-min Rain = 0
KSE2 040051Z 30006KT 18/M01 A30 RMK A01 T01771008  RH  028%=      5-min Rain = 0
KSE2 040052Z 30006KT 18/M01 A30 RMK A01 T01771008  RH  028%=      5-min Rain = 0
KSE2 040053Z 30006KT 18/M01 A30 RMK A01 T01781008  RH  028%=      5-min Rain = 0
KSE2 040054Z 30006KT 18/M01 A30 RMK A01 T01791008  RH  028%=      5-min Rain = 0
KSE2 040055Z 31006KT 18/M01 A30 RMK A01 T01791008  RH  028%=      5-min Rain = 0
KSE2 040056Z 30007KT 18/M01 A30 RMK A01 T01791008  RH  028%=      5-min Rain = 0
KSE2 040057Z 30006KT 18/M01 A30 RMK A01 T01781008  RH  028%=      5-min Rain = 0
KSE2 040058Z 30006KT 18/M01 A30 RMK A01 T01781008  RH  028%=      5-min Rain = 0
KSE2 040059Z 31006KT 18/M01 A30 RMK A01 T01781007  RH  028%=      5-min Rain = 0
KSE2 040100Z 31006KT 18/M01 A30 RMK A01 T01771007  RH  029%=      5-min Rain = 0
KSE2 040101Z 31005KT 18/M01 A30 RMK A01 T01751008  RH  029%=      5-min Rain = 0
KSE2 040102Z 32006KT 17/M01 A30 RMK A01 T01741008  RH  029%=      5-min Rain = 0
KSE2 040103Z 32005KT 17/M01 A3001 RMK A01 T01731008  RH  029%=      5-min Rain = 0
KSE2 040104Z 33005KT 17/M01 A3001 RMK A01 T01721008  RH  030%=      5-min Rain = 0
KSE2 040105Z 33005KT 17/M01 A3001 RMK A01 T01701008  RH  030%=      5-min Rain = 0
KSE2 040106Z 33006KT 17/M01 A3001 RMK A01 T01691008  RH  030%=      5-min Rain = 0
KSE2 040107Z 33007KT 17/M01 A3001 RMK A01 T01681008  RH  030%=      5-min Rain = 0
KSE2 040108Z 32007KT 17/M01 A3001 RMK A01 T01681008  RH  030%=      5-min Rain = 0
KSE2 040109Z 32007KT 17/M01 A3001 RMK A01 T01691008  RH  030%=      5-min Rain = 0
KSE2 040110Z 32007KT 17/M01 A3001 RMK A01 T01691007  RH  030%=      5-min Rain = 0
KSE2 040111Z 32007KT 17/M01 A3001 RMK A01 T01691007  RH  030%=      5-min Rain = 0
KSE2 040112Z 32007KT 17/M01 A3001 RMK A01 T01701007  RH  030%=      5-min Rain = 0
KSE2 040113Z 33007KT 17/M01 A3001 RMK A01 T01701007  RH  030%=      5-min Rain = 0
KSE2 040114Z 33008KT 17/M01 A3001 RMK A01 T01721007  RH  030%=      5-min Rain = 0
KSE2 040115Z 33009KT 17/M01 A3002 RMK A01 T01721007  RH  030%=      5-min Rain = 0
KSE2 040116Z 33009KT 17/M01 A3002 RMK A01 T01721007  RH  030%=      5-min Rain = 0
KSE2 040117Z 33012G17KT 17/M01 A3002 RMK A01 T01731007  RH  029%=      5-min Rain = 0
KSE2 040118Z 35010KT 18/M01 A3002 RMK A01 T01761006  RH  029%=      5-min Rain = 0
KSE2 040119Z 34010KT 18/M01 A3002 RMK A01 T01751006  RH  029%=      5-min Rain = 0
KSE2 040120Z 35009KT 17/M01 A3002 RMK A01 T01721007  RH  030%=      5-min Rain = 0
KSE2 040121Z 35009KT 17/M01 A3002 RMK A01 T01681006  RH  030%=      5-min Rain = 0
KSE2 040122Z 35008KT 17/M01 A3002 RMK A01 T01661006  RH  031%=      5-min Rain = 0
KSE2 040123Z 34009KT 17/M01 A3002 RMK A01 T01651006  RH  031%=      5-min Rain = 0
KSE2 040124Z 35009KT 16/M01 A3002 RMK A01 T01641005  RH  032%=      5-min Rain = 0
KSE2 040125Z 35008KT 16/M00 A3002 RMK A01 T01631004  RH  032%=      5-min Rain = 0
KSE2 040126Z 35009KT 16/M00 A3002 RMK A01 T01621003  RH  032%=      5-min Rain = 0
KSE2 040127Z 35009KT 16/M00 A3002 RMK A01 T01621003  RH  032%=      5-min Rain = 0
KSE2 040128Z 35009KT 16/M00 A3003 RMK A01 T01621003  RH  033%=      5-min Rain = 0
KSE2 040129Z 35008KT 16/M00 A3003 RMK A01 T01601003  RH  033%=      5-min Rain = 0
KSE2 040130Z 35008KT 16/M00 A3003 RMK A01 T01601002  RH  033%=      5-min Rain = 0
KSE2 040131Z 35008KT 16/M00 A3003 RMK A01 T01591002  RH  033%=      5-min Rain = 0
KSE2 040132Z 35008KT 16/M00 A3003 RMK A01 T01591001  RH  033%=      5-min Rain = 0
KSE2 040133Z 35008KT 16/M00 A3003 RMK A01 T01591001  RH  034%=      5-min Rain = 0
KSE2 040134Z 35007KT 16/M00 A3003 RMK A01 T01591001  RH  034%=      5-min Rain = 0
KSE2 040135Z 35007KT 16/00 A3003 RMK A01 T015800-0  RH  034%=      5-min Rain = 0
KSE2 040136Z 35008KT 16/00 A3003 RMK A01 T015700-0  RH  034%=      5-min Rain = 0
KSE2 040137Z 35008KT 16/00 A3003 RMK A01 T015700-0  RH  034%=      5-min Rain = 0
KSE2 040138Z 35007KT 16/00 A3003 RMK A01 T015600-0  RH  034%=      5-min Rain = 0
KSE2 040139Z 35007KT 16/00 A3003 RMK A01 T01550000  RH  035%=      5-min Rain = 0
KSE2 040140Z 35007KT 16/00 A3003 RMK A01 T01550000  RH  035%=      5-min Rain = 0
KSE2 040141Z 35007KT 16/00 A3003 RMK A01 T01550001  RH  035%=      5-min Rain = 0
KSE2 040142Z 35007KT 15/00 A3003 RMK A01 T01540001  RH  035%=      5-min Rain = 0
KSE2 040143Z 35007KT 15/00 A3003 RMK A01 T01530001  RH  035%=      5-min Rain = 0
KSE2 040144Z 35007KT 15/00 A3003 RMK A01 T01530001  RH  036%=      5-min Rain = 0
KSE2 040145Z 35007KT 15/00 A3003 RMK A01 T01530001  RH  036%=      5-min Rain = 0
KSE2 040146Z 35006KT 15/00 A3003 RMK A01 T01520001  RH  036%=      5-min Rain = 0
KSE2 040147Z 35006KT 15/00 A3003 RMK A01 T01520001  RH  036%=      5-min Rain = 0
KSE2 040148Z 35006KT 15/00 A3003 RMK A01 T01510002  RH  036%=      5-min Rain = 0
KSE2 040149Z 35006KT 15/00 A3003 RMK A01 T01500001  RH  036%=      5-min Rain = 0
KSE2 040150Z 34006KT 15/00 A3003 RMK A01 T01500002  RH  036%=      5-min Rain = 0
KSE2 040151Z 35006KT 15/00 A3003 RMK A01 T01490002  RH  037%=      5-min Rain = 0
KSE2 040152Z 35006KT 15/00 A3003 RMK A01 T01480002  RH  037%=      5-min Rain = 0
KSE2 040153Z 34006KT 15/00 A3003 RMK A01 T01480002  RH  037%=      5-min Rain = 0
KSE2 040154Z 35005KT 15/00 A3003 RMK A01 T01480002  RH  037%=      5-min Rain = 0
KSE2 040155Z 35006KT 15/00 A3003 RMK A01 T01480002  RH  037%=      5-min Rain = 0
KSE2 040156Z 35005KT 15/00 A3003 RMK A01 T01490003  RH  037%=      5-min Rain = 0
KSE2 040157Z 34005KT 15/00 A3003 RMK A01 T01490003  RH  037%=      5-min Rain = 0
KSE2 040158Z 35005KT 15/00 A3003 RMK A01 T01490003  RH  037%=      5-min Rain = 0
KSE2 040159Z 35005KT 15/00 A3003 RMK A01 T01480003  RH  037%=      5-min Rain = 0
KSE2 040200Z 35005KT 15/00 A3003 RMK A01 T01480003  RH  037%=      5-min Rain = 0
KSE2 040201Z 35004KT 15/00 A3004 RMK A01 T01480003  RH  037%=      5-min Rain = 0
KSE2 040202Z 35004KT 15/00 A3004 RMK A01 T01480003  RH  037%=      5-min Rain = 0
KSE2 040203Z 34004KT 15/00 A3004 RMK A01 T01470003  RH  037%=      5-min Rain = 0
KSE2 040204Z 35004KT 15/00 A3004 RMK A01 T01470003  RH  038%=      5-min Rain = 0
KSE2 040205Z 35004KT 15/00 A3004 RMK A01 T01460003  RH  038%=      5-min Rain = 0
KSE2 040206Z 35004KT 15/00 A3004 RMK A01 T01460003  RH  038%=      5-min Rain = 0
KSE2 040207Z 35005KT 15/00 A3004 RMK A01 T01450004  RH  038%=      5-min Rain = 0
KSE2 040208Z 35005KT 14/00 A3004 RMK A01 T01440004  RH  038%=      5-min Rain = 0
KSE2 040209Z 35005KT 14/00 A3004 RMK A01 T01440004  RH  039%=      5-min Rain = 0
KSE2 040210Z 35006KT 14/00 A3004 RMK A01 T01430004  RH  039%=      5-min Rain = 0
KSE2 040211Z 35005KT 14/01 A3004 RMK A01 T01430005  RH  039%=      5-min Rain = 0
KSE2 040212Z 35006KT 14/01 A3004 RMK A01 T01430005  RH  039%=      5-min Rain = 0
KSE2 040213Z 35006KT 14/01 A3005 RMK A01 T01440006  RH  039%=      5-min Rain = 0
KSE2 040214Z 35005KT 14/01 A3005 RMK A01 T01440006  RH  039%=      5-min Rain = 0
KSE2 040215Z 34005KT 14/01 A3005 RMK A01 T01440007  RH  039%=      5-min Rain = 0
KSE2 040216Z 35005KT 14/01 A3005 RMK A01 T01430006  RH  039%=      5-min Rain = 0
KSE2 040217Z 35006KT 14/01 A3005 RMK A01 T01430007  RH  039%=      5-min Rain = 0
KSE2 040218Z 35006KT 14/01 A3005 RMK A01 T01430007  RH  040%=      5-min Rain = 0
KSE2 040219Z 35006KT 14/01 A3005 RMK A01 T01420007  RH  040%=      5-min Rain = 0
KSE2 040220Z 36007KT 14/01 A3005 RMK A01 T01420007  RH  040%=      5-min Rain = 0
KSE2 040221Z 36007KT 14/01 A3005 RMK A01 T01420008  RH  040%=      5-min Rain = 0
KSE2 040222Z 36006KT 14/01 A3005 RMK A01 T01430008  RH  040%=      5-min Rain = 0
KSE2 040223Z 35007KT 14/01 A3005 RMK A01 T01440009  RH  040%=      5-min Rain = 0
KSE2 040224Z 36006KT 14/01 A3005 RMK A01 T01440009  RH  040%=      5-min Rain = 0
KSE2 040225Z 36007KT 14/01 A3005 RMK A01 T01440009  RH  040%=      5-min Rain = 0
KSE2 040226Z 35006KT 14/01 A3005 RMK A01 T01440009  RH  040%=      5-min Rain = 0
KSE2 040227Z 36007KT 14/01 A3005 RMK A01 T01440009  RH  040%=      5-min Rain = 0
KSE2 040228Z 36006KT 14/01 A3005 RMK A01 T01440009  RH  040%=      5-min Rain = 0
KSE2 040229Z 36007KT 14/01 A3005 RMK A01 T01440009  RH  040%=      5-min Rain = 0
KSE2 040230Z 35007KT 14/01 A3005 RMK A01 T01430009  RH  040%=      5-min Rain = 0
KSE2 040231Z 36006KT 14/01 A3005 RMK A01 T01430009  RH  040%=      5-min Rain = 0
KSE2 040232Z 35006KT 14/01 A3005 RMK A01 T01430010  RH  040%=      5-min Rain = 0
KSE2 040233Z 35007KT 14/01 A3005 RMK A01 T01420009  RH  040%=      5-min Rain = 0
KSE2 040234Z 35007KT 14/01 A3005 RMK A01 T01420010  RH  041%=      5-min Rain = 0
KSE2 040235Z 35007KT 14/01 A3005 RMK A01 T01420010  RH  041%=      5-min Rain = 0
KSE2 040236Z 35007KT 14/01 A3005 RMK A01 T01420011  RH  041%=      5-min Rain = 0
KSE2 040237Z 35007KT 14/01 A3005 RMK A01 T01420011  RH  041%=      5-min Rain = 0
KSE2 040238Z 35007KT 14/01 A3005 RMK A01 T01410011  RH  041%=      5-min Rain = 0
KSE2 040239Z 35007KT 14/01 A3005 RMK A01 T01400010  RH  041%=      5-min Rain = 0
KSE2 040240Z 35007KT 14/01 A3005 RMK A01 T01380010  RH  042%=      5-min Rain = 0
KSE2 040241Z 35007KT 14/01 A3005 RMK A01 T01380010  RH  042%=      5-min Rain = 0
KSE2 040242Z 35007KT 14/01 A3005 RMK A01 T01370010  RH  042%=      5-min Rain = 0
KSE2 040243Z 35007KT 14/01 A3005 RMK A01 T01370011  RH  042%=      5-min Rain = 0
KSE2 040244Z 35007KT 14/01 A3005 RMK A01 T01360010  RH  042%=      5-min Rain = 0
KSE2 040245Z 36008KT 14/01 A3005 RMK A01 T01360011  RH  042%=      5-min Rain = 0
KSE2 040246Z 00006KT 14/01 A3005 RMK A01 T01360011  RH  042%=      5-min Rain = 0
KSE2 040247Z 36006KT 14/01 A3005 RMK A01 T01360011  RH  042%=      5-min Rain = 0
KSE2 040248Z 36007KT 14/01 A3005 RMK A01 T01360011  RH  043%=      5-min Rain = 0
KSE2 040249Z 35006KT 14/01 A3005 RMK A01 T01370012  RH  042%=      5-min Rain = 0
KSE2 040250Z 00006KT 14/01 A3006 RMK A01 T01370012  RH  042%=      5-min Rain = 0
KSE2 040251Z 36007KT 14/01 A3006 RMK A01 T01360012  RH  043%=      5-min Rain = 0
KSE2 040252Z 35007KT 14/01 A3006 RMK A01 T01360012  RH  043%=      5-min Rain = 0
KSE2 040253Z 36006KT 14/01 A3006 RMK A01 T01360012  RH  043%=      5-min Rain = 0
KSE2 040254Z 36007KT 14/01 A3006 RMK A01 T01360013  RH  043%=      5-min Rain = 0
KSE2 040255Z 36007KT 14/01 A3006 RMK A01 T01360013  RH  043%=      5-min Rain = 0
KSE2 040256Z 36007KT 14/01 A3006 RMK A01 T01370013  RH  043%=      5-min Rain = 0
KSE2 040257Z 36007KT 14/01 A3006 RMK A01 T01370013  RH  043%=      5-min Rain = 0
KSE2 040258Z 36007KT 14/01 A3006 RMK A01 T01360013  RH  043%=      5-min Rain = 0
KSE2 040259Z 36007KT 14/01 A3006 RMK A01 T01360013  RH  043%=      5-min Rain = 0
KSE2 040300Z 36006KT 14/01 A3006 RMK A01 T01350013  RH  043%=      5-min Rain = 0
KSE2 040301Z 36006KT 14/01 A3006 RMK A01 T01350013  RH  043%=      5-min Rain = 0
KSE2 040302Z 36006KT 13/01 A3006 RMK A01 T01340013  RH  044%=      5-min Rain = 0
KSE2 040303Z 36006KT 13/01 A3006 RMK A01 T01330013  RH  044%=      5-min Rain = 0
KSE2 040304Z 00006KT 13/01 A3006 RMK A01 T01330013  RH  044%=      5-min Rain = 0
KSE2 040305Z 00006KT 13/01 A3006 RMK A01 T01330013  RH  044%=      5-min Rain = 0
KSE2 040306Z 36007KT 13/01 A3006 RMK A01 T01330013  RH  044%=      5-min Rain = 0
KSE2 040307Z 36006KT 13/01 A3006 RMK A01 T01330013  RH  044%=      5-min Rain = 0
KSE2 040308Z 00006KT 13/01 A3006 RMK A01 T01330013  RH  044%=      5-min Rain = 0
KSE2 040309Z 00007KT 13/01 A3006 RMK A01 T01330014  RH  044%=      5-min Rain = 0
KSE2 040310Z 01007KT 13/01 A3006 RMK A01 T01330014  RH  044%=      5-min Rain = 0
KSE2 040311Z 00006KT 13/01 A3006 RMK A01 T01330014  RH  044%=      5-min Rain = 0
KSE2 040312Z 01007KT 13/01 A3006 RMK A01 T01330014  RH  044%=      5-min Rain = 0
KSE2 040313Z 01007KT 13/01 A3006 RMK A01 T01320014  RH  045%=      5-min Rain = 0
KSE2 040314Z 01007KT 13/01 A3006 RMK A01 T01320014  RH  045%=      5-min Rain = 0
KSE2 040315Z 00007KT 13/02 A3006 RMK A01 T01310015  RH  045%=      5-min Rain = 0
KSE2 040316Z 01007KT 13/02 A3006 RMK A01 T01310015  RH  045%=      5-min Rain = 0
KSE2 040317Z 00007KT 13/02 A3006 RMK A01 T01300015  RH  045%=      5-min Rain = 0
KSE2 040318Z 00007KT 13/02 A3006 RMK A01 T01300015  RH  045%=      5-min Rain = 0
KSE2 040319Z 36007KT 13/02 A3006 RMK A01 T01300015  RH  046%=      5-min Rain = 0
KSE2 040320Z 36007KT 13/02 A3006 RMK A01 T01300015  RH  046%=      5-min Rain = 0
KSE2 040321Z 36007KT 13/02 A3006 RMK A01 T01300016  RH  046%=      5-min Rain = 0
KSE2 040322Z 35006KT 13/02 A3006 RMK A01 T01300016  RH  046%=      5-min Rain = 0
KSE2 040323Z 35006KT 13/02 A3006 RMK A01 T01290015  RH  046%=      5-min Rain = 0
KSE2 040324Z 35005KT 13/02 A3006 RMK A01 T01280015  RH  046%=      5-min Rain = 0
KSE2 040325Z 35005KT 13/01 A3006 RMK A01 T01260014  RH  047%=      5-min Rain = 0
KSE2 040326Z 35005KT 12/01 A3006 RMK A01 T01240014  RH  047%=      5-min Rain = 0
KSE2 040327Z 35005KT 12/01 A3006 RMK A01 T01230014  RH  047%=      5-min Rain = 0
KSE2 040328Z 35004KT 12/01 A3006 RMK A01 T01220014  RH  047%=      5-min Rain = 0
KSE2 040329Z 35005KT 12/01 A3007 RMK A01 T01210014  RH  048%=      5-min Rain = 0
KSE2 040330Z 35005KT 12/01 A3007 RMK A01 T01200013  RH  048%=      5-min Rain = 0
KSE2 040331Z 35004KT 12/01 A3007 RMK A01 T01190013  RH  048%=      5-min Rain = 0
KSE2 040332Z 35004KT 12/01 A3007 RMK A01 T01180013  RH  048%=      5-min Rain = 0
KSE2 040333Z 35004KT 12/01 A3007 RMK A01 T01170013  RH  049%=      5-min Rain = 0
KSE2 040334Z 35004KT 12/01 A3007 RMK A01 T01170013  RH  049%=      5-min Rain = 0
KSE2 040335Z 36004KT 12/01 A3007 RMK A01 T01160013  RH  049%=      5-min Rain = 0
KSE2 040336Z 36004KT 12/01 A3007 RMK A01 T01160013  RH  049%=      5-min Rain = 0
KSE2 040337Z 36004KT 12/01 A3007 RMK A01 T01160013  RH  049%=      5-min Rain = 0
KSE2 040338Z 36004KT 12/01 A3007 RMK A01 T01150013  RH  049%=      5-min Rain = 0
KSE2 040339Z 00004KT 12/01 A3007 RMK A01 T01150013  RH  049%=      5-min Rain = 0
KSE2 040340Z 36004KT 12/01 A3007 RMK A01 T01150013  RH  050%=      5-min Rain = 0
KSE2 040341Z 00004KT 12/01 A3007 RMK A01 T01150013  RH  049%=      5-min Rain = 0
KSE2 040342Z 00004KT 12/01 A3007 RMK A01 T01150013  RH  049%=      5-min Rain = 0
KSE2 040343Z 00004KT 12/01 A3007 RMK A01 T01160013  RH  049%=      5-min Rain = 0
KSE2 040344Z 36004KT 12/01 A3007 RMK A01 T01160013  RH  049%=      5-min Rain = 0
KSE2 040345Z 36004KT 12/01 A3007 RMK A01 T01160013  RH  049%=      5-min Rain = 0
KSE2 040346Z 35004KT 12/01 A3007 RMK A01 T01160013  RH  049%=      5-min Rain = 0
KSE2 040347Z 35004KT 12/01 A3007 RMK A01 T01160013  RH  049%=      5-min Rain = 0
KSE2 040348Z 34003KT 12/01 A3007 RMK A01 T01160013  RH  049%=      5-min Rain = 0
KSE2 040349Z 34003KT 12/01 A3007 RMK A01 T01160014  RH  049%=      5-min Rain = 0
KSE2 040350Z 34003KT 12/01 A3007 RMK A01 T01150014  RH  050%=      5-min Rain = 0
KSE2 040351Z 34003KT 12/01 A3007 RMK A01 T01150013  RH  050%=      5-min Rain = 0
KSE2 040352Z 34003KT 12/01 A3007 RMK A01 T01150013  RH  050%=      5-min Rain = 0
KSE2 040353Z 34003KT 12/01 A3007 RMK A01 T01150014  RH  050%=      5-min Rain = 0
KSE2 040354Z 33003KT 12/01 A3007 RMK A01 T01150014  RH  050%=      5-min Rain = 0
KSE2 040355Z 34003KT 12/01 A3007 RMK A01 T01150013  RH  050%=      5-min Rain = 0
KSE2 040356Z 34003KT 12/01 A3008 RMK A01 T01150013  RH  050%=      5-min Rain = 0
KSE2 040357Z 34003KT 12/01 A3008 RMK A01 T01150013  RH  050%=      5-min Rain = 0
KSE2 040358Z 34003KT 12/01 A3008 RMK A01 T01150014  RH  050%=      5-min Rain = 0
KSE2 040359Z 34003KT 12/01 A3008 RMK A01 T01150014  RH  050%=      5-min Rain = 0
KSE2 040400Z 34003KT 12/01 A3008 RMK A01 T01160014  RH  050%=      5-min Rain = 0
KSE2 040401Z 34003KT 12/01 A3008 RMK A01 T01160014  RH  050%=      5-min Rain = 0
KSE2 040402Z 35003KT 12/01 A3008 RMK A01 T01160014  RH  050%=      5-min Rain = 0
KSE2 040403Z 35003KT 12/01 A3008 RMK A01 T01160014  RH  050%=      5-min Rain = 0
KSE2 040404Z 00002KT 12/02 A3008 RMK A01 T01170015  RH  050%=      5-min Rain = 0
KSE2 040405Z 35002KT 12/01 A3008 RMK A01 T01160014  RH  049%=      5-min Rain = 0
KSE2 040406Z 35003KT 12/02 A3008 RMK A01 T01170015  RH  050%=      5-min Rain = 0
KSE2 040407Z 36002KT 12/01 A3008 RMK A01 T01160014  RH  050%=      5-min Rain = 0
KSE2 040408Z 00003KT 12/02 A3008 RMK A01 T01170015  RH  050%=      5-min Rain = 0
KSE2 040409Z 00003KT 12/02 A3008 RMK A01 T01180015  RH  049%=      5-min Rain = 0
KSE2 040410Z 36004KT 12/02 A3008 RMK A01 T01180015  RH  049%=      5-min Rain = 0
KSE2 040411Z 36004KT 12/02 A3008 RMK A01 T01180015  RH  049%=      5-min Rain = 0
KSE2 040412Z 00005KT 12/02 A3008 RMK A01 T01180015  RH  049%=      5-min Rain = 0
KSE2 040413Z 36005KT 12/02 A3008 RMK A01 T01180015  RH  049%=      5-min Rain = 0
KSE2 040414Z 36006KT 12/02 A3008 RMK A01 T01180015  RH  049%=      5-min Rain = 0
KSE2 040415Z 36006KT 12/02 A3008 RMK A01 T01170015  RH  050%=      5-min Rain = 0
KSE2 040416Z 36006KT 12/02 A3008 RMK A01 T01160015  RH  050%=      5-min Rain = 0
KSE2 040417Z 36006KT 12/02 A3008 RMK A01 T01150015  RH  050%=      5-min Rain = 0
KSE2 040418Z 00006KT 11/01 A3008 RMK A01 T01140014  RH  050%=      5-min Rain = 0
KSE2 040419Z 36006KT 11/02 A3008 RMK A01 T01130015  RH  051%=      5-min Rain = 0
KSE2 040420Z 36005KT 11/02 A3008 RMK A01 T01130015  RH  051%=      5-min Rain = 0
KSE2 040421Z 36005KT 11/02 A3008 RMK A01 T01130015  RH  051%=      5-min Rain = 0
KSE2 040422Z 36005KT 11/02 A3008 RMK A01 T01120015  RH  051%=      5-min Rain = 0
KSE2 040423Z 36005KT 11/02 A3008 RMK A01 T01120015  RH  051%=      5-min Rain = 0
KSE2 040424Z 35005KT 11/02 A3008 RMK A01 T01120015  RH  051%=      5-min Rain = 0
KSE2 040425Z 36005KT 11/02 A3008 RMK A01 T01110015  RH  051%=      5-min Rain = 0
KSE2 040426Z 36005KT 11/02 A3008 RMK A01 T01100015  RH  052%=      5-min Rain = 0
KSE2 040427Z 35004KT 11/01 A3008 RMK A01 T01100014  RH  052%=      5-min Rain = 0
KSE2 040428Z 35004KT 11/01 A3008 RMK A01 T01090014  RH  052%=      5-min Rain = 0
KSE2 040429Z 35004KT 11/02 A3008 RMK A01 T01090015  RH  052%=      5-min Rain = 0
KSE2 040430Z 35005KT 11/02 A3008 RMK A01 T01090015  RH  052%=      5-min Rain = 0
KSE2 040431Z 35005KT 11/02 A3008 RMK A01 T01080015  RH  052%=      5-min Rain = 0
KSE2 040432Z 35005KT 11/02 A3008 RMK A01 T01080015  RH  053%=      5-min Rain = 0
KSE2 040433Z 35005KT 11/02 A3008 RMK A01 T01070015  RH  053%=      5-min Rain = 0
KSE2 040434Z 35005KT 11/01 A3008 RMK A01 T01070014  RH  053%=      5-min Rain = 0
KSE2 040435Z 34004KT 11/02 A3008 RMK A01 T01060015  RH  053%=      5-min Rain = 0
KSE2 040436Z 34004KT 11/02 A3008 RMK A01 T01060015  RH  053%=      5-min Rain = 0
KSE2 040437Z 34005KT 11/01 A3008 RMK A01 T01060014  RH  053%=      5-min Rain = 0
KSE2 040438Z 34005KT 11/01 A3008 RMK A01 T01050014  RH  053%=      5-min Rain = 0
KSE2 040439Z 34005KT 11/01 A3008 RMK A01 T01050014  RH  053%=      5-min Rain = 0
KSE2 040440Z 34005KT 10/01 A3008 RMK A01 T01040013  RH  054%=      5-min Rain = 0
KSE2 040441Z 34005KT 10/01 A3008 RMK A01 T01030013  RH  054%=      5-min Rain = 0
KSE2 040442Z 35005KT 10/01 A3008 RMK A01 T01020013  RH  054%=      5-min Rain = 0
KSE2 040443Z 35006KT 10/01 A3008 RMK A01 T01010013  RH  054%=      5-min Rain = 0
KSE2 040444Z 35005KT 10/01 A3008 RMK A01 T01010013  RH  054%=      5-min Rain = 0
KSE2 040445Z 35006KT 10/01 A3008 RMK A01 T01010013  RH  055%=      5-min Rain = 0
KSE2 040446Z 35006KT 10/01 A3008 RMK A01 T01010014  RH  055%=      5-min Rain = 0
KSE2 040447Z 35005KT 10/01 A3008 RMK A01 T01010013  RH  055%=      5-min Rain = 0
KSE2 040448Z 35005KT 10/01 A3008 RMK A01 T01010014  RH  055%=      5-min Rain = 0
KSE2 040449Z 35005KT 10/01 A3008 RMK A01 T01010013  RH  055%=      5-min Rain = 0
KSE2 040450Z 35005KT 10/01 A3008 RMK A01 T01010014  RH  055%=      5-min Rain = 0
KSE2 040451Z 35005KT 10/01 A3008 RMK A01 T01010014  RH  055%=      5-min Rain = 0
KSE2 040452Z 35005KT 10/01 A3008 RMK A01 T01000013  RH  055%=      5-min Rain = 0
KSE2 040453Z 35005KT 10/01 A3008 RMK A01 T00990013  RH  055%=      5-min Rain = 0
KSE2 040454Z 35005KT 10/01 A3008 RMK A01 T00990014  RH  055%=      5-min Rain = 0
KSE2 040455Z 35005KT 10/01 A3009 RMK A01 T00990014  RH  055%=      5-min Rain = 0
KSE2 040456Z 35005KT 10/01 A3009 RMK A01 T00990013  RH  055%=      5-min Rain = 0
KSE2 040457Z 35005KT 10/01 A3009 RMK A01 T00990014  RH  055%=      5-min Rain = 0
KSE2 040458Z 35006KT 10/01 A3009 RMK A01 T00990014  RH  055%=      5-min Rain = 0
KSE2 040459Z 35006KT 10/01 A3009 RMK A01 T00990014  RH  055%=      5-min Rain = 0
KSE2 040500Z 35006KT 10/01 A3009 RMK A01 T00990014  RH  055%=      5-min Rain = 0
KSE2 040501Z 35006KT 10/01 A3009 RMK A01 T00980013  RH  055%=      5-min Rain = 0
KSE2 040502Z 35006KT 10/01 A3009 RMK A01 T00980013  RH  056%=      5-min Rain = 0
KSE2 040503Z 35005KT 10/01 A3009 RMK A01 T00970013  RH  056%=      5-min Rain = 0
KSE2 040504Z 35005KT 10/01 A3009 RMK A01 T00960013  RH  056%=      5-min Rain = 0
KSE2 040505Z 35005KT 10/01 A3009 RMK A01 T00960013  RH  056%=      5-min Rain = 0
KSE2 040506Z 35005KT 10/01 A3009 RMK A01 T00960013  RH  056%=      5-min Rain = 0
KSE2 040507Z 35005KT 10/01 A3009 RMK A01 T00960014  RH  056%=      5-min Rain = 0
KSE2 040508Z 35005KT 10/01 A3009 RMK A01 T00970014  RH  056%=      5-min Rain = 0
KSE2 040509Z 36006KT 10/01 A3009 RMK A01 T00980014  RH  056%=      5-min Rain = 0
KSE2 040510Z 36006KT 10/01 A3009 RMK A01 T00980014  RH  056%=      5-min Rain = 0
KSE2 040511Z 36006KT 10/02 A3009 RMK A01 T00990015  RH  056%=      5-min Rain = 0
KSE2 040512Z 35006KT 10/02 A3009 RMK A01 T01000015  RH  055%=      5-min Rain = 0
KSE2 040513Z 35006KT 10/02 A3009 RMK A01 T01000015  RH  055%=      5-min Rain = 0
KSE2 040514Z 35006KT 10/01 A3009 RMK A01 T01000014  RH  055%=      5-min Rain = 0
KSE2 040515Z 35006KT 10/01 A3009 RMK A01 T00990014  RH  055%=      5-min Rain = 0
KSE2 040516Z 35006KT 10/01 A3009 RMK A01 T00990014  RH  056%=      5-min Rain = 0
KSE2 040517Z 35006KT 10/01 A3009 RMK A01 T00980014  RH  056%=      5-min Rain = 0
KSE2 040518Z 35005KT 10/01 A3009 RMK A01 T00970014  RH  056%=      5-min Rain = 0
KSE2 040519Z 35005KT 10/01 A3009 RMK A01 T00960013  RH  056%=      5-min Rain = 0
KSE2 040520Z 35005KT 10/01 A3009 RMK A01 T00950013  RH  057%=      5-min Rain = 0
KSE2 040521Z 35005KT 09/01 A3009 RMK A01 T00940013  RH  057%=      5-min Rain = 0
KSE2 040522Z 35005KT 09/01 A3009 RMK A01 T00930013  RH  057%=      5-min Rain = 0
KSE2 040523Z 35005KT 09/01 A3009 RMK A01 T00920013  RH  057%=      5-min Rain = 0
KSE2 040524Z 35005KT 09/01 A301 RMK A01 T00920013  RH  058%=      5-min Rain = 0
KSE2 040525Z 35005KT 09/01 A3009 RMK A01 T00920013  RH  058%=      5-min Rain = 0
KSE2 040526Z 35005KT 09/01 A3009 RMK A01 T00910012  RH  058%=      5-min Rain = 0
KSE2 040527Z 35004KT 09/01 A3009 RMK A01 T00910013  RH  058%=      5-min Rain = 0
KSE2 040528Z 35005KT 09/01 A3009 RMK A01 T00910013  RH  058%=      5-min Rain = 0
KSE2 040529Z 35005KT 09/01 A3009 RMK A01 T00900013  RH  058%=      5-min Rain = 0
KSE2 040530Z 35005KT 09/01 A3009 RMK A01 T00900013  RH  058%=      5-min Rain = 0
KSE2 040531Z 34005KT 09/01 A3009 RMK A01 T00900012  RH  058%=      5-min Rain = 0
KSE2 040532Z 34005KT 09/01 A3009 RMK A01 T00900013  RH  058%=      5-min Rain = 0
KSE2 040533Z 34005KT 09/01 A3009 RMK A01 T00900013  RH  058%=      5-min Rain = 0
KSE2 040534Z 34004KT 09/01 A301 RMK A01 T00910013  RH  058%=      5-min Rain = 0
KSE2 040535Z 35005KT 09/01 A3009 RMK A01 T00900013  RH  058%=      5-min Rain = 0
KSE2 040536Z 35005KT 09/01 A3009 RMK A01 T00900013  RH  058%=      5-min Rain = 0
KSE2 040537Z 35005KT 09/01 A3009 RMK A01 T00890013  RH  059%=      5-min Rain = 0
KSE2 040538Z 35005KT 09/01 A3009 RMK A01 T00890013  RH  059%=      5-min Rain = 0
KSE2 040539Z 35005KT 09/01 A3009 RMK A01 T00900013  RH  059%=      5-min Rain = 0
KSE2 040540Z 35005KT 09/01 A3009 RMK A01 T00900013  RH  058%=      5-min Rain = 0
KSE2 040541Z 35005KT 09/01 A3009 RMK A01 T00900012  RH  058%=      5-min Rain = 0
KSE2 040542Z 35005KT 09/01 A3009 RMK A01 T00900013  RH  058%=      5-min Rain = 0
KSE2 040543Z 35004KT 09/01 A3009 RMK A01 T00900013  RH  059%=      5-min Rain = 0
KSE2 040544Z 35004KT 09/01 A3009 RMK A01 T00890013  RH  059%=      5-min Rain = 0
KSE2 040545Z 35004KT 09/01 A3009 RMK A01 T00890013  RH  059%=      5-min Rain = 0
KSE2 040546Z 35003KT 09/01 A3009 RMK A01 T00880012  RH  059%=      5-min Rain = 0
KSE2 040547Z 35003KT 09/01 A3009 RMK A01 T00880012  RH  059%=      5-min Rain = 0
KSE2 040548Z 00004KT 09/01 A3009 RMK A01 T00870012  RH  059%=      5-min Rain = 0
KSE2 040549Z 35004KT 09/01 A3009 RMK A01 T00860012  RH  060%=      5-min Rain = 0
KSE2 040550Z 35004KT 09/01 A3009 RMK A01 T00850012  RH  060%=      5-min Rain = 0
KSE2 040551Z 35004KT 08/01 A3009 RMK A01 T00840012  RH  060%=      5-min Rain = 0
KSE2 040552Z 35005KT 09/01 A3009 RMK A01 T00850013  RH  061%=      5-min Rain = 0
KSE2 040553Z 35005KT 09/01 A3009 RMK A01 T00850012  RH  060%=      5-min Rain = 0
KSE2 040554Z 35004KT 09/01 A3009 RMK A01 T00850013  RH  060%=      5-min Rain = 0
KSE2 040555Z 35005KT 09/01 A3009 RMK A01 T00860013  RH  060%=      5-min Rain = 0
KSE2 040556Z 35005KT 09/01 A3009 RMK A01 T00860013  RH  060%=      5-min Rain = 0
KSE2 040557Z 35005KT 09/01 A3009 RMK A01 T00860013  RH  060%=      5-min Rain = 0
KSE2 040558Z 35005KT 09/01 A3009 RMK A01 T00850012  RH  060%=      5-min Rain = 0
KSE2 040559Z 35005KT 09/01 A3009 RMK A01 T00850012  RH  060%=      5-min Rain = 0

Page generated in 0.0698 seconds.